W4HSV Weather Reports


time (UTC)temp
C
wind
direction
speed
KPH
gust
KPH
rain 1hr
cm
rain 24hr
cm
rain mn
cm
humidity
%
barometer
mb
20260831135038 28 188 6.4 16.1 0.00 0.00 0.00 77 1020.7
20260831134927 28 140 4.8 14.5 0.00 0.00 0.00 78 1020.8
20260831134900 28 148 4.8 14.5 0.00 0.00 0.00 78 1020.8
20260831134634 28 180 8.0 14.5 0.00 0.00 0.00 78 1020.7
20260831134522 28 139 8.0 14.5 0.00 0.00 0.00 78 1020.7
20260831134429 28 137 6.4 11.3 0.00 0.00 0.00 78 1020.8
20260831134357 28 188 6.4 11.3 0.00 0.00 0.00 78 1020.7
20260831134226 28 126 6.4 11.3 0.00 0.00 0.00 78 1020.7
20260831134134 28 198 6.4 11.3 0.00 0.00 0.00 77 1020.8
20260831134021 28 191 8.0 11.3 0.00 0.00 0.00 78 1020.7
20260831133928 28 192 8.0 12.9 0.00 0.00 0.00 78 1020.7
20260831133836 28 163 8.0 11.3 0.00 0.00 0.00 78 1020.7
20260831133728 27 182 6.4 11.3 0.00 0.00 0.00 79 1020.7
20260831133636 27 166 4.8 9.7 0.00 0.00 0.00 80 1020.8
20260831133524 27 113 6.4 9.7 0.00 0.00 0.00 79 1020.7
20260831133453 27 194 6.4 9.7 0.00 0.00 0.00 79 1020.7
20260831133402 27 186 6.4 9.7 0.00 0.00 0.00 79 1020.7
20260831133119 27 209 4.8 11.3 0.00 0.00 0.00 80 1020.7
20260831133028 27 198 4.8 11.3 0.00 0.00 0.00 80 1020.6
20260831132935 27 144 4.8 11.3 0.00 0.00 0.00 81 1020.6
20260831132823 27 119 4.8 11.3 0.00 0.00 0.00 81 1020.6
20260831132729 27 57 4.8 11.3 0.00 0.00 0.00 80 1020.6
20260831132621 27 144 6.4 11.3 0.00 0.00 0.00 81 1020.7
20260831132528 27 134 6.4 11.3 0.00 0.00 0.00 81 1020.6
20260831132435 27 157 6.4 9.7 0.00 0.00 0.00 81 1020.6
20260831132343 27 186 6.4 9.7 0.00 0.00 0.00 81 1020.6
20260831132229 27 146 6.4 8.0 0.00 0.00 0.00 81 1020.7
20260831132157 27 123 4.8 9.7 0.00 0.00 0.00 83 1020.6
20260831132023 27 130 4.8 8.0 0.00 0.00 0.00 83 1020.6
20260831131935 26 137 6.4 8.0 0.00 0.00 0.00 83 1020.7
20260831131906 26 132 6.4 8.0 0.00 0.00 0.00 83 1020.7
20260831131620 26 123 4.8 8.0 0.00 0.00 0.00 84 1020.7
20260831131527 26 160 4.8 8.0 0.00 0.00 0.00 84 1020.7
20260831131439 26 146 4.8 8.0 0.00 0.00 0.00 84 1020.5
20260831131326 26 137 4.8 8.0 0.00 0.00 0.00 84 1020.6
20260831131234 26 126 6.4 8.0 0.00 0.00 0.00 84 1020.5
20260831131121 26 120 6.4 8.0 0.00 0.00 0.00 84 1020.5
20260831131028 26 124 4.8 9.7 0.00 0.00 0.00 86 1020.5
20260831130955 26 111 4.8 6.4 0.00 0.00 0.00 86 1020.5
20260831130825 25 148 1.6 4.8 0.00 0.00 0.00 87 1020.5
20260831130751 25 133 0.0 4.8 0.00 0.00 0.00 86 1020.5
20260831130639 25 116 0.0 0.0 0.00 0.00 0.00 86 1020.5
20260831130546 25 126 0.0 0.0 0.00 0.00 0.00 87 1020.5
20260831130453 25 116 0.0 0.0 0.00 0.00 0.00 87 1020.5
20260831130423 25 103 0.0 0.0 0.00 0.00 0.00 88 1020.4
20260831130120 25 140 0.0 0.0 0.00 0.00 0.00 89 1020.4
20260831130046 24 140 0.0 0.0 0.00 0.00 0.00 90 1020.4
20260831125953 24 121 0.0 0.0 0.00 0.00 0.00 90 1020.4
20260831125838 24 121 0.0 0.0 0.00 0.00 0.00 90 1020.3
20260831125745 24 121 0.0 0.0 0.00 0.00 0.00 90 1020.3
20260831125652 24 92 0.0 0.0 0.00 0.00 0.00 91 1020.4
20260831125539 23 88 0.0 0.0 0.00 0.00 0.00 91 1020.3
20260831125429 23 114 0.0 0.0 0.00 0.00 0.00 92 1020.3
20260831125336 23 123 0.0 0.0 0.00 0.00 0.00 92 1020.3
20260831125223 23 70 0.0 0.0 0.00 0.00 0.00 92 1020.3
20260831125130 23 86 0.0 0.0 0.00 0.00 0.00 93 1020.4
20260831125038 23 111 0.0 0.0 0.00 0.00 0.00 94 1020.3
20260831124930 23 99 0.0 0.0 0.00 0.00 0.00 94 1020.3
20260831124900 23 99 0.0 0.0 0.00 0.00 0.00 94 1020.3
20260831124634 23 350 0.0 0.0 0.00 0.00 0.00 94 1020.3
20260831124521 23 350 0.0 0.0 0.00 0.00 0.00 94 1020.3
20260831124429 23 350 0.0 0.0 0.00 0.00 0.00 94 1020.3
20260831124320 23 350 0.0 0.0 0.00 0.00 0.00 93 1020.2
20260831124228 23 350 0.0 0.0 0.00 0.00 0.00 93 1020.2
20260831124155 22 350 0.0 0.0 0.00 0.00 0.00 93 1020.2
20260831124022 22 350 0.0 0.0 0.00 0.00 0.00 93 1020.2
20260831123928 22 350 0.0 0.0 0.00 0.00 0.00 93 1020.2
20260831123820 22 350 0.0 0.0 0.00 0.00 0.00 93 1020.2
20260831123726 22 350 0.0 0.0 0.00 0.00 0.00 94 1020.2
20260831123634 22 350 0.0 0.0 0.00 0.00 0.00 94 1020.2
20260831123520 22 350 0.0 0.0 0.00 0.00 0.00 94 1020.2
20260831123428 22 350 0.0 0.0 0.00 0.00 0.00 94 1020.2
20260831123404 22 350 0.0 0.0 0.00 0.00 0.00 94 1020.2
20260831123138 22 350 0.0 0.0 0.00 0.00 0.00 94 1020.2
20260831123024 22 350 0.0 0.0 0.00 0.00 0.00 94 1020.1
20260831122933 22 350 0.0 0.0 0.00 0.00 0.00 94 1020.1
20260831122840 22 350 0.0 0.0 0.00 0.00 0.00 94 1020.1
20260831122731 22 350 0.0 0.0 0.00 0.00 0.00 94 1020.1
20260831122639 22 350 0.0 0.0 0.00 0.00 0.00 94 1020.1
20260831122526 22 350 0.0 0.0 0.00 0.00 0.00 94 1020.1
20260831122432 22 350 0.0 0.0 0.00 0.00 0.00 94 1020.1
20260831122320 22 350 0.0 0.0 0.00 0.00 0.00 94 1020.1
20260831122228 22 350 0.0 0.0 0.00 0.00 0.00 94 1020.0
20260831122139 22 350 0.0 0.0 0.00 0.00 0.00 94 1020.1
20260831122026 22 350 0.0 0.0 0.00 0.00 0.00 94 1020.1
20260831121933 22 350 0.0 0.0 0.00 0.00 0.00 94 1020.1
20260831121903 22 350 0.0 0.0 0.00 0.00 0.00 94 1020.1
20260831121621 22 350 0.0 0.0 0.00 0.00 0.00 94 1020.0
20260831121530 22 350 0.0 0.0 0.00 0.00 0.00 94 1019.9
20260831121437 22 350 0.0 0.0 0.00 0.00 0.00 94 1019.9
20260831121324 22 350 0.0 0.0 0.00 0.00 0.00 94 1019.9
20260831121231 22 350 0.0 0.0 0.00 0.00 0.00 94 1019.8
20260831121122 22 350 0.0 0.0 0.00 0.00 0.00 94 1019.9
20260831121029 22 350 0.0 0.0 0.00 0.00 0.00 94 1019.9
20260831120937 22 350 0.0 0.0 0.00 0.00 0.00 94 1019.9
20260831120844 22 350 0.0 0.0 0.00 0.00 0.00 94 1019.8
20260831120731 22 350 0.0 0.0 0.00 0.00 0.00 94 1019.8
20260831120638 22 350 0.0 0.0 0.00 0.00 0.00 94 1019.8
20260831120529 22 350 0.0 0.0 0.00 0.00 0.00 94 1019.8
20260831120456 22 350 0.0 0.0 0.00 0.00 0.00 94 1019.8
20260831120428 22 350 0.0 0.0 0.00 0.00 0.00 94 1019.9
20260831120121 22 350 0.0 0.0 0.00 0.00 0.00 94 1019.8
20260831120028 22 350 0.0 0.0 0.00 0.00 0.00 94 1019.8
20260831115920 22 350 0.0 0.0 0.00 0.00 0.00 94 1019.8
20260831115827 22 350 0.0 0.0 0.00 0.00 0.00 94 1019.7
20260831115735 22 350 0.0 0.0 0.00 0.00 0.00 94 1019.8
20260831115623 21 350 0.0 0.0 0.00 0.00 0.00 94 1019.7
20260831115530 21 350 0.0 0.0 0.00 0.00 0.00 93 1019.7
20260831115422 21 350 0.0 0.0 0.00 0.00 0.00 93 1019.6
20260831115329 21 350 0.0 0.0 0.00 0.00 0.00 93 1019.8
20260831115258 21 350 0.0 0.0 0.00 0.00 0.00 93 1019.8
20260831115125 21 350 0.0 0.0 0.00 0.00 0.00 93 1019.8
20260831115033 21 350 0.0 0.0 0.00 0.00 0.00 93 1019.8
20260831114920 21 350 0.0 0.0 0.00 0.00 0.00 93 1019.6
20260831114854 22 350 0.0 0.0 0.00 0.00 0.00 93 1019.6
20260831114627 22 350 0.0 0.0 0.00 0.00 0.00 93 1019.6
20260831114556 22 350 0.0 0.0 0.00 0.00 0.00 93 1019.7
20260831114442 22 350 0.0 0.0 0.00 0.00 0.00 93 1019.6
20260831114329 22 350 0.0 0.0 0.00 0.00 0.00 93 1019.6
20260831114221 22 350 0.0 0.0 0.00 0.00 0.00 94 1019.6
20260831114126 22 350 0.0 0.0 0.00 0.00 0.00 94 1019.6
20260831114034 22 350 0.0 0.0 0.00 0.00 0.00 94 1019.6
20260831113921 22 350 0.0 0.0 0.00 0.00 0.00 93 1019.7
20260831113828 22 350 0.0 0.0 0.00 0.00 0.00 93 1019.6
20260831113736 22 350 0.0 0.0 0.00 0.00 0.00 93 1019.6
20260831113647 22 350 0.0 0.0 0.00 0.00 0.00 93 1019.5
20260831113533 22 350 0.0 0.0 0.00 0.00 0.00 93 1019.5
20260831113500 22 350 0.0 0.0 0.00 0.00 0.00 93 1019.5
20260831113432 22 350 0.0 0.0 0.00 0.00 0.00 93 1019.6
20260831113124 22 350 0.0 0.0 0.00 0.00 0.00 93 1019.5
20260831113052 22 350 0.0 0.0 0.00 0.00 0.00 93 1019.4
20260831112921 22 350 0.0 0.0 0.00 0.00 0.00 93 1019.4
20260831112851 22 350 0.0 0.0 0.00 0.00 0.00 93 1019.4
20260831112736 22 350 0.0 0.0 0.00 0.00 0.00 93 1019.4
20260831112624 22 350 0.0 0.0 0.00 0.00 0.00 93 1019.4
20260831112532 22 350 0.0 0.0 0.00 0.00 0.00 93 1019.4
20260831112423 22 350 0.0 0.0 0.00 0.00 0.00 93 1019.4
20260831112332 22 350 0.0 0.0 0.00 0.00 0.00 93 1019.5
20260831112300 22 350 0.0 0.0 0.00 0.00 0.00 93 1019.4
20260831112146 22 350 0.0 0.0 0.00 0.00 0.00 93 1019.3
20260831112053 22 350 0.0 0.0 0.00 0.00 0.00 93 1019.4
20260831111939 22 350 0.0 0.0 0.00 0.00 0.00 93 1019.4
20260831111855 22 350 0.0 0.0 0.00 0.00 0.00 93 1019.4
20260831111630 22 350 0.0 0.0 0.00 0.00 0.00 93 1019.3
20260831111538 22 350 0.0 0.0 0.00 0.00 0.00 93 1019.4
20260831111424 22 350 0.0 0.0 0.00 0.00 0.00 93 1019.3
20260831111332 22 350 0.0 0.0 0.00 0.00 0.00 93 1019.4
20260831111224 22 350 0.0 0.0 0.00 0.00 0.00 93 1019.3
20260831111130 22 350 0.0 0.0 0.00 0.00 0.00 93 1019.3
20260831111037 22 350 0.0 0.0 0.00 0.00 0.00 93 1019.3
20260831110944 22 350 0.0 0.0 0.00 0.00 0.00 94 1019.3
20260831110831 22 350 0.0 0.0 0.00 0.00 0.00 94 1019.3
20260831110738 22 350 0.0 0.0 0.00 0.00 0.00 94 1019.3
20260831110629 22 350 0.0 0.0 0.00 0.00 0.00 94 1019.3
20260831110536 22 350 0.0 0.0 0.00 0.00 0.00 94 1019.4
20260831110423 22 350 0.0 0.0 0.00 0.00 0.00 94 1019.3
20260831110355 22 350 0.0 0.0 0.00 0.00 0.00 93 1019.3
20260831110128 22 350 0.0 0.0 0.00 0.00 0.00 93 1019.4
20260831110020 22 350 0.0 0.0 0.00 0.00 0.00 93 1019.4
20260831105947 22 350 0.0 0.0 0.00 0.00 0.00 93 1019.3
20260831105834 22 350 0.0 0.0 0.00 0.00 0.00 93 1019.3
20260831105721 22 350 0.0 0.0 0.00 0.00 0.00 93 1019.3
20260831105629 22 350 0.0 0.0 0.00 0.00 0.00 93 1019.3
20260831105534 22 350 0.0 0.0 0.00 0.00 0.00 93 1019.3
20260831105426 22 350 0.0 0.0 0.00 0.00 0.00 93 1019.3
20260831105332 22 350 0.0 0.0 0.00 0.00 0.00 93 1019.3
20260831105220 22 350 0.0 0.0 0.00 0.00 0.00 93 1019.3
20260831105128 22 350 0.0 0.0 0.00 0.00 0.00 93 1019.2
20260831105055 22 350 0.0 0.0 0.00 0.00 0.00 93 1019.2
20260831104923 22 350 0.0 0.0 0.00 0.00 0.00 93 1019.2
20260831104858 22 350 0.0 0.0 0.00 0.00 0.00 93 1019.2
20260831104631 22 350 0.0 0.0 0.00 0.00 0.00 93 1019.2
20260831104539 22 350 0.0 0.0 0.00 0.00 0.00 94 1019.1
20260831104427 22 350 0.0 0.0 0.00 0.00 0.00 94 1019.1
20260831104353 22 350 0.0 0.0 0.00 0.00 0.00 94 1019.2
20260831104222 22 350 0.0 0.0 0.00 0.00 0.00 94 1019.1
20260831104129 22 350 0.0 0.0 0.00 0.00 0.00 94 1019.1
20260831104057 22 350 0.0 0.0 0.00 0.00 0.00 94 1019.1
20260831103944 22 350 0.0 0.0 0.00 0.00 0.00 94 1019.0
20260831103831 22 350 0.0 0.0 0.00 0.00 0.00 94 1019.0
20260831103738 22 350 0.0 0.0 0.00 0.00 0.00 93 1018.9
20260831103630 22 350 0.0 0.0 0.00 0.00 0.00 93 1019.0
20260831103537 22 350 0.0 0.0 0.00 0.00 0.00 93 1018.9
20260831103503 22 350 0.0 0.0 0.00 0.00 0.00 94 1019.0
20260831103413 22 350 0.0 0.0 0.00 0.00 0.00 94 1019.0
20260831103125 22 350 0.0 0.0 0.00 0.00 0.00 94 1019.0
20260831103053 22 350 0.0 0.0 0.00 0.00 0.00 93 1019.0
20260831102922 22 350 0.0 0.0 0.00 0.00 0.00 94 1018.9
20260831102830 22 350 0.0 0.0 0.00 0.00 0.00 94 1019.0
20260831102737 22 350 0.0 0.0 0.00 0.00 0.00 94 1019.0
20260831102624 22 350 0.0 0.0 0.00 0.00 0.00 94 1018.9
20260831102532 22 350 0.0 0.0 0.00 0.00 0.00 94 1018.9
20260831102424 22 350 0.0 0.0 0.00 0.00 0.00 94 1018.8
20260831102332 22 350 0.0 0.0 0.00 0.00 0.00 94 1018.8
20260831102239 22 350 0.0 0.0 0.00 0.00 0.00 94 1018.9
20260831102126 22 350 0.0 0.0 0.00 0.00 0.00 94 1018.9
20260831102033 22 350 0.0 0.0 0.00 0.00 0.00 94 1018.9
20260831101941 22 350 0.0 0.0 0.00 0.00 0.00 94 1018.8
20260831101916 22 350 0.0 0.0 0.00 0.00 0.00 94 1018.8
20260831101629 22 350 0.0 0.0 0.00 0.00 0.00 94 1018.9
20260831101536 22 350 0.0 0.0 0.00 0.00 0.00 94 1018.8
20260831101422 22 350 0.0 0.0 0.00 0.00 0.00 94 1018.8
20260831101350 22 350 0.0 0.0 0.00 0.00 0.00 94 1018.7
20260831101256 22 350 0.0 0.0 0.00 0.00 0.00 94 1018.7
20260831101146 22 350 0.0 0.0 0.00 0.00 0.00 94 1018.7
20260831101032 22 350 0.0 0.0 0.00 0.00 0.00 94 1018.7
20260831100920 22 350 0.0 0.0 0.00 0.00 0.00 94 1018.7
20260831100827 22 350 0.0 0.0 0.00 0.00 0.00 94 1018.7
20260831100732 22 350 0.0 0.0 0.00 0.00 0.00 94 1018.7
20260831100623 22 350 0.0 0.0 0.00 0.00 0.00 94 1018.6
20260831100530 22 350 0.0 0.0 0.00 0.00 0.00 93 1018.6
20260831100409 22 350 0.0 0.0 0.00 0.00 0.00 93 1018.6
20260831100122 22 350 0.0 0.0 0.00 0.00 0.00 93 1018.5
20260831100053 22 350 0.0 0.0 0.00 0.00 0.00 93 1018.5
20260831095939 22 350 0.0 0.0 0.00 0.00 0.00 93 1018.5
20260831095826 22 350 0.0 0.0 0.00 0.00 0.00 93 1018.6
20260831095734 22 350 0.0 1.6 0.00 0.00 0.00 93 1018.6
20260831095621 22 350 0.0 1.6 0.00 0.00 0.00 93 1018.6
20260831095528 22 350 0.0 1.6 0.00 0.00 0.00 93 1018.6
20260831095420 22 350 0.0 3.2 0.00 0.00 0.00 93 1018.6
20260831095325 22 350 0.0 3.2 0.00 0.00 0.00 93 1018.5
20260831095233 22 350 0.0 3.2 0.00 0.00 0.00 93 1018.6
20260831095120 22 350 0.0 3.2 0.00 0.00 0.00 93 1018.5
20260831095027 22 350 0.0 3.2 0.00 0.00 0.00 92 1018.4
20260831094909 22 350 1.6 3.2 0.00 0.00 0.00 92 1018.5
20260831094623 22 350 0.0 3.2 0.00 0.00 0.00 92 1018.6
20260831094531 22 350 1.6 3.2 0.00 0.00 0.00 92 1018.6
20260831094423 22 350 1.6 3.2 0.00 0.00 0.00 92 1018.6
20260831094330 22 350 1.6 3.2 0.00 0.00 0.00 92 1018.5
20260831094257 22 350 1.6 3.2 0.00 0.00 0.00 92 1018.5
20260831094123 22 350 1.6 3.2 0.00 0.00 0.00 92 1018.5
20260831094051 22 350 1.6 3.2 0.00 0.00 0.00 92 1018.5
20260831093938 22 350 1.6 3.2 0.00 0.00 0.00 92 1018.5
20260831093825 22 350 1.6 3.2 0.00 0.00 0.00 92 1018.6
20260831093736 22 350 1.6 3.2 0.00 0.00 0.00 91 1018.6
20260831093623 22 350 0.0 3.2 0.00 0.00 0.00 91 1018.6
20260831093531 22 350 1.6 3.2 0.00 0.00 0.00 91 1018.6
20260831093412 22 350 1.6 3.2 0.00 0.00 0.00 91 1018.6
20260831093126 22 350 3.2 3.2 0.00 0.00 0.00 91 1018.5
20260831093035 22 350 3.2 3.2 0.00 0.00 0.00 91 1018.6
20260831092923 22 350 1.6 3.2 0.00 0.00 0.00 91 1018.6
20260831092831 22 350 3.2 3.2 0.00 0.00 0.00 91 1018.5
20260831092722 22 350 3.2 3.2 0.00 0.00 0.00 91 1018.5
20260831092630 22 350 1.6 3.2 0.00 0.00 0.00 91 1018.6
20260831092536 22 251 1.6 3.2 0.00 0.00 0.00 91 1018.5
20260831092443 22 251 1.6 3.2 0.00 0.00 0.00 90 1018.6
20260831092329 22 251 1.6 3.2 0.00 0.00 0.00 90 1018.6
20260831092237 22 251 1.6 1.6 0.00 0.00 0.00 90 1018.5
20260831092145 22 251 0.0 1.6 0.00 0.00 0.00 90 1018.6
20260831092034 22 251 0.0 1.6 0.00 0.00 0.00 90 1018.6
20260831091911 22 251 0.0 0.0 0.00 0.00 0.00 91 1018.6
20260831091622 23 251 0.0 0.0 0.00 0.00 0.00 91 1018.5
20260831091534 23 251 0.0 0.0 0.00 0.00 0.00 90 1018.6
20260831091420 23 251 0.0 0.0 0.00 0.00 0.00 90 1018.6
20260831091328 23 251 0.0 0.0 0.00 0.00 0.00 90 1018.5
20260831091256 23 251 0.0 0.0 0.00 0.00 0.00 90 1018.5
20260831091123 23 251 0.0 0.0 0.00 0.00 0.00 90 1018.6
20260831091049 23 251 0.0 0.0 0.00 0.00 0.00 90 1018.5
20260831090921 23 251 0.0 1.6 0.00 0.00 0.00 90 1018.6
20260831090828 23 251 0.0 1.6 0.00 0.00 0.00 90 1018.5
20260831090735 23 251 0.0 1.6 0.00 0.00 0.00 90 1018.5
20260831090623 23 251 0.0 3.2 0.00 0.00 0.00 90 1018.5
20260831090531 23 251 0.0 3.2 0.00 0.00 0.00 90 1018.4
20260831090414 23 251 0.0 3.2 0.00 0.00 0.00 90 1018.4
20260831090147 23 251 0.0 3.2 0.00 0.00 0.00 90 1018.5
20260831090034 23 251 1.6 3.2 0.00 0.00 0.00 90 1018.5
20260831085922 23 251 1.6 3.2 0.00 0.00 0.00 90 1018.5
20260831085829 23 251 1.6 3.2 0.00 0.00 0.00 90 1018.4
20260831085721 23 251 0.0 3.2 0.00 0.00 0.00 90 1018.5
20260831085629 23 144 0.0 3.2 0.00 0.00 0.00 90 1018.5
20260831085536 23 144 0.0 3.2 0.00 0.00 0.00 90 1018.4
20260831085424 23 144 0.0 3.2 0.00 0.00 0.00 90 1018.5
20260831085332 23 144 0.0 3.2 0.00 0.00 0.00 90 1018.4
20260831085220 23 144 0.0 3.2 0.00 0.00 0.00 90 1018.5
20260831085150 23 144 0.0 3.2 0.00 0.00 0.00 91 1018.4
20260831085056 23 144 1.6 3.2 0.00 0.00 0.00 91 1018.4
20260831084913 23 144 1.6 3.2 0.00 0.00 0.00 91 1018.4
20260831084646 23 144 0.0 3.2 0.00 0.00 0.00 91 1018.5
20260831084557 23 144 0.0 3.2 0.00 0.00 0.00 90 1018.4
20260831084423 23 144 0.0 3.2 0.00 0.00 0.00 90 1018.4
20260831084332 23 144 0.0 3.2 0.00 0.00 0.00 90 1018.4
20260831084219 23 144 0.0 3.2 0.00 0.00 0.00 90 1018.4
20260831084127 23 144 0.0 3.2 0.00 0.00 0.00 90 1018.4
20260831084034 23 144 1.6 3.2 0.00 0.00 0.00 90 1018.4
20260831083925 23 144 1.6 3.2 0.00 0.00 0.00 90 1018.3
20260831083834 23 144 1.6 3.2 0.00 0.00 0.00 90 1018.4
20260831083720 23 144 1.6 3.2 0.00 0.00 0.00 90 1018.3
20260831083648 23 144 1.6 3.2 0.00 0.00 0.00 90 1018.3
20260831083535 23 144 1.6 3.2 0.00 0.00 0.00 89 1018.3
20260831083427 23 144 1.6 3.2 0.00 0.00 0.00 89 1018.3
20260831083359 23 144 1.6 3.2 0.00 0.00 0.00 90 1018.3
20260831083133 23 144 0.0 3.2 0.00 0.00 0.00 90 1018.3
20260831083041 23 144 0.0 3.2 0.00 0.00 0.00 90 1018.2
20260831082927 23 144 0.0 3.2 0.00 0.00 0.00 90 1018.2
20260831082855 23 144 0.0 3.2 0.00 0.00 0.00 90 1018.1
20260831082726 23 144 1.6 3.2 0.00 0.00 0.00 90 1018.1
20260831082632 23 144 1.6 3.2 0.00 0.00 0.00 91 1018.2
20260831082519 23 144 1.6 3.2 0.00 0.00 0.00 91 1018.2
20260831082428 23 144 1.6 3.2 0.00 0.00 0.00 91 1018.1
20260831082336 23 144 1.6 3.2 0.00 0.00 0.00 91 1018.1
20260831082227 23 144 1.6 3.2 0.00 0.00 0.00 91 1018.2
20260831082153 23 144 1.6 3.2 0.00 0.00 0.00 91 1018.1
20260831082039 23 144 1.6 3.2 0.00 0.00 0.00 91 1018.1
20260831081946 23 144 1.6 3.2 0.00 0.00 0.00 91 1018.0
20260831081855 23 144 1.6 3.2 0.00 0.00 0.00 91 1018.0
20260831081632 23 342 1.6 3.2 0.00 0.00 0.00 91 1018.1
20260831081520 23 342 1.6 3.2 0.00 0.00 0.00 91 1018.1
20260831081427 23 342 1.6 3.2 0.00 0.00 0.00 91 1018.1
20260831081335 23 342 1.6 3.2 0.00 0.00 0.00 91 1018.1
20260831081224 23 342 0.0 3.2 0.00 0.00 0.00 91 1018.1
20260831081131 23 342 0.0 1.6 0.00 0.00 0.00 92 1018.1
20260831081024 23 342 0.0 1.6 0.00 0.00 0.00 92 1018.0
20260831080932 23 342 0.0 1.6 0.00 0.00 0.00 92 1018.0
20260831080838 23 342 0.0 1.6 0.00 0.00 0.00 91 1018.0
20260831080726 23 342 0.0 0.0 0.00 0.00 0.00 91 1018.0
20260831080632 23 342 0.0 0.0 0.00 0.00 0.00 91 1018.0
20260831080523 23 342 0.0 0.0 0.00 0.00 0.00 91 1018.0
20260831080431 23 342 0.0 0.0 0.00 0.00 0.00 91 1018.0
20260831080402 23 342 0.0 0.0 0.00 0.00 0.00 91 1018.0
20260831080135 23 342 0.0 0.0 0.00 0.00 0.00 91 1018.1
20260831080023 23 342 0.0 0.0 0.00 0.00 0.00 91 1018.1
20260831075955 23 342 0.0 0.0 0.00 0.00 0.00 91 1018.1
20260831075821 23 342 0.0 0.0 0.00 0.00 0.00 91 1018.1
20260831075727 23 342 0.0 0.0 0.00 0.00 0.00 91 1018.1
20260831075635 23 342 0.0 0.0 0.00 0.00 0.00 90 1018.0
20260831075523 23 342 0.0 0.0 0.00 0.00 0.00 90 1018.0
20260831075430 23 342 0.0 0.0 0.00 0.00 0.00 90 1018.1
20260831075342 23 342 0.0 0.0 0.00 0.00 0.00 90 1018.1
20260831075229 23 342 0.0 0.0 0.00 0.00 0.00 90 1018.1
20260831075136 23 342 0.0 0.0 0.00 0.00 0.00 90 1018.1
20260831075023 23 342 0.0 0.0 0.00 0.00 0.00 90 1018.1
20260831074925 23 342 0.0 0.0 0.00 0.00 0.00 90 1018.1
20260831074638 23 342 0.0 0.0 0.00 0.00 0.00 90 1018.1
20260831074525 23 342 0.0 0.0 0.00 0.00 0.00 90 1018.1
20260831074433 23 342 0.0 0.0 0.00 0.00 0.00 90 1018.0
20260831074321 23 342 0.0 1.6 0.00 0.00 0.00 90 1018.1
20260831074233 23 342 0.0 1.6 0.00 0.00 0.00 90 1018.1
20260831074120 23 342 0.0 1.6 0.00 0.00 0.00 90 1018.1
20260831074047 23 342 0.0 1.6 0.00 0.00 0.00 90 1018.1
20260831073954 23 342 0.0 1.6 0.00 0.00 0.00 90 1018.1
20260831073820 23 342 0.0 1.6 0.00 0.00 0.00 90 1018.1
20260831073728 23 342 0.0 1.6 0.00 0.00 0.00 90 1018.1
20260831073655 23 342 0.0 1.6 0.00 0.00 0.00 89 1018.1
20260831073546 23 342 0.0 1.6 0.00 0.00 0.00 89 1018.2
20260831073432 23 342 0.0 3.2 0.00 0.00 0.00 89 1018.1
20260831073404 23 342 1.6 3.2 0.00 0.00 0.00 89 1018.1
20260831073137 23 342 1.6 3.2 0.00 0.00 0.00 90 1018.2
20260831073043 23 342 1.6 3.2 0.00 0.00 0.00 90 1018.2
20260831072934 23 342 1.6 3.2 0.00 0.00 0.00 90 1018.3
20260831072821 23 342 1.6 3.2 0.00 0.00 0.00 90 1018.3
20260831072728 23 342 1.6 3.2 0.00 0.00 0.00 90 1018.2
20260831072635 23 342 1.6 4.8 0.00 0.00 0.00 89 1018.3
20260831072524 23 342 1.6 4.8 0.00 0.00 0.00 89 1018.2
20260831072431 23 342 3.2 4.8 0.00 0.00 0.00 89 1018.3
20260831072322 23 342 1.6 4.8 0.00 0.00 0.00 89 1018.2
20260831072229 23 342 1.6 4.8 0.00 0.00 0.00 90 1018.2
20260831072137 23 342 1.6 4.8 0.00 0.00 0.00 90 1018.3
20260831072024 23 342 3.2 4.8 0.00 0.00 0.00 90 1018.3
20260831071909 23 342 3.2 4.8 0.00 0.00 0.00 90 1018.3
20260831071622 23 342 3.2 4.8 0.00 0.00 0.00 89 1018.4
20260831071549 23 342 3.2 4.8 0.00 0.00 0.00 89 1018.2
20260831071435 23 342 3.2 3.2 0.00 0.00 0.00 89 1018.2
20260831071324 23 342 3.2 3.2 0.00 0.00 0.00 89 1018.3
20260831071236 23 342 3.2 3.2 0.00 0.00 0.00 89 1018.2
20260831071123 23 342 3.2 3.2 0.00 0.00 0.00 89 1018.3
20260831071051 23 342 3.2 3.2 0.00 0.00 0.00 89 1018.2
20260831070958 23 342 3.2 3.2 0.00 0.00 0.00 89 1018.3
20260831070824 23 342 1.6 3.2 0.00 0.00 0.00 89 1018.3
20260831070732 23 342 1.6 3.2 0.00 0.00 0.00 89 1018.3
20260831070623 23 342 1.6 3.2 0.00 0.00 0.00 89 1018.2
20260831070529 23 342 1.6 3.2 0.00 0.00 0.00 89 1018.2
20260831070437 23 342 1.6 3.2 0.00 0.00 0.00 89 1018.2
20260831070408 23 342 1.6 3.2 0.00 0.00 0.00 89 1018.2
20260831070125 23 342 1.6 4.8 0.00 0.00 0.00 90 1018.2
20260831070032 23 342 1.6 4.8 0.00 0.00 0.00 90 1018.2
20260831065920 23 342 1.6 4.8 0.00 0.00 0.00 90 1018.2
20260831065828 23 342 0.0 4.8 0.00 0.00 0.00 90 1018.3
20260831065756 23 342 0.0 4.8 0.00 0.00 0.00 90 1018.2
20260831065622 23 342 1.6 4.8 0.00 0.00 0.00 90 1018.1
20260831065534 23 342 1.6 4.8 0.00 0.00 0.00 90 1018.2
20260831065420 23 342 3.2 4.8 0.00 0.00 0.00 90 1018.2
20260831065329 23 342 3.2 4.8 0.00 0.00 0.00 90 1018.2
20260831065235 23 342 3.2 4.8 0.00 0.00 0.00 89 1018.2
20260831065142 23 342 3.2 4.8 0.00 0.00 0.00 89 1018.1
20260831065030 23 342 3.2 4.8 0.00 0.00 0.00 89 1018.1
20260831064920 23 342 3.2 4.8 0.00 0.00 0.00 89 1018.2
20260831064853 23 342 3.2 4.8 0.00 0.00 0.00 89 1018.2
20260831064626 23 342 3.2 3.2 0.00 0.00 0.00 89 1018.2
20260831064534 23 342 3.2 3.2 0.00 0.00 0.00 89 1018.2
20260831064425 23 5 1.6 3.2 0.00 0.00 0.00 89 1018.2
20260831064333 23 5 1.6 3.2 0.00 0.00 0.00 89 1018.2
20260831064220 23 5 3.2 3.2 0.00 0.00 0.00 89 1018.2
20260831064129 23 5 3.2 3.2 0.00 0.00 0.00 88 1018.3
20260831064037 23 5 1.6 3.2 0.00 0.00 0.00 89 1018.2
20260831063924 23 5 1.6 4.8 0.00 0.00 0.00 89 1018.2
20260831063856 23 5 1.6 4.8 0.00 0.00 0.00 89 1018.2
20260831063723 23 5 1.6 4.8 0.00 0.00 0.00 89 1018.2
20260831063630 23 5 3.2 4.8 0.00 0.00 0.00 89 1018.3
20260831063537 23 5 3.2 4.8 0.00 0.00 0.00 89 1018.2
20260831063423 23 5 3.2 4.8 0.00 0.00 0.00 89 1018.2
20260831063357 23 5 3.2 4.8 0.00 0.00 0.00 89 1018.2
20260831063152 23 5 3.2 4.8 0.00 0.00 0.00 89 1018.2
20260831063039 23 5 3.2 4.8 0.00 0.00 0.00 89 1018.3
20260831062947 23 355 3.2 4.8 0.00 0.00 0.00 88 1018.3
20260831062834 23 355 3.2 4.8 0.00 0.00 0.00 88 1018.3
20260831062722 23 342 1.6 3.2 0.00 0.00 0.00 88 1018.2
20260831062633 23 342 1.6 3.2 0.00 0.00 0.00 88 1018.3
20260831062521 23 342 1.6 3.2 0.00 0.00 0.00 89 1018.3
20260831062448 23 342 1.6 4.8 0.00 0.00 0.00 89 1018.3
20260831062336 23 342 1.6 4.8 0.00 0.00 0.00 89 1018.2
20260831062244 23 342 1.6 4.8 0.00 0.00 0.00 89 1018.3
20260831062131 23 342 1.6 4.8 0.00 0.00 0.00 89 1018.3
20260831062042 23 342 1.6 4.8 0.00 0.00 0.00 89 1018.3
20260831061929 23 342 1.6 4.8 0.00 0.00 0.00 89 1018.3
20260831061858 23 342 3.2 4.8 0.00 0.00 0.00 89 1018.3
20260831061651 23 319 3.2 4.8 0.00 0.00 0.00 89 1018.4
20260831061537 23 322 3.2 4.8 0.00 0.00 0.00 89 1018.5
20260831061427 23 322 3.2 4.8 0.00 0.00 0.00 89 1018.4
20260831061335 23 355 3.2 4.8 0.00 0.00 0.00 89 1018.5
20260831061223 23 355 3.2 4.8 0.00 0.00 0.00 89 1018.5
20260831061152 23 15 1.6 4.8 0.00 0.00 0.00 89 1018.5
20260831061039 23 15 1.6 4.8 0.00 0.00 0.00 89 1018.6
20260831060925 23 15 3.2 4.8 0.00 0.00 0.00 89 1018.6
20260831060837 23 15 3.2 4.8 0.00 0.00 0.00 88 1018.5
20260831060725 23 15 3.2 4.8 0.00 0.00 0.00 88 1018.5
20260831060633 23 15 3.2 4.8 0.00 0.00 0.00 88 1018.6
20260831060519 23 15 3.2 4.8 0.00 0.00 0.00 88 1018.5
20260831060427 23 21 3.2 4.8 0.00 0.00 0.00 88 1018.5
20260831060401 23 40 3.2 4.8 0.00 0.00 0.00 88 1018.5
20260831060135 23 5 3.2 4.8 0.00 0.00 0.00 88 1018.5
20260831060023 23 5 3.2 4.8 0.00 0.00 0.00 88 1018.5
20260831055931 23 5 3.2 4.8 0.00 0.00 0.00 88 1018.5
20260831055838 23 5 3.2 4.8 0.00 0.00 0.00 88 1018.6
20260831055730 23 5 3.2 4.8 0.00 0.00 0.00 88 1018.6
20260831055638 23 5 3.2 4.8 0.00 0.00 0.00 88 1018.6
20260831055525 23 5 3.2 4.8 0.00 0.00 0.00 87 1018.6
20260831055433 23 5 3.2 4.8 0.00 0.00 0.00 87 1018.6
20260831055320 23 5 3.2 4.8 0.00 0.00 0.00 87 1018.6
20260831055247 23 14 3.2 4.8 0.00 0.00 0.00 87 1018.6
20260831055139 23 14 3.2 4.8 0.00 0.00 0.00 87 1018.6
20260831055025 23 14 3.2 4.8 0.00 0.00 0.00 87 1018.4
20260831054953 23 32 1.6 4.8 0.00 0.00 0.00 87 1018.4
20260831054924 23 32 1.6 3.2 0.00 0.00 0.00 87 1018.5
20260831054621 24 32 1.6 3.2 0.00 0.00 0.00 87 1018.4
20260831054527 24 32 1.6 3.2 0.00 0.00 0.00 87 1018.5
20260831054435 24 32 1.6 3.2 0.00 0.00 0.00 87 1018.4
20260831054343 24 32 3.2 3.2 0.00 0.00 0.00 87 1018.4
20260831054230 24 32 3.2 3.2 0.00 0.00 0.00 88 1018.4
20260831054138 24 32 3.2 3.2 0.00 0.00 0.00 88 1018.4
20260831054029 24 32 1.6 3.2 0.00 0.00 0.00 88 1018.3
20260831053936 24 32 1.6 3.2 0.00 0.00 0.00 87 1018.4
20260831053825 24 32 1.6 3.2 0.00 0.00 0.00 87 1018.3
20260831053733 24 32 1.6 1.6 0.00 0.00 0.00 88 1018.3
20260831053620 24 32 1.6 1.6 0.00 0.00 0.00 88 1018.4
20260831053528 24 32 0.0 1.6 0.00 0.00 0.00 88 1018.3
20260831053409 24 32 0.0 1.6 0.00 0.00 0.00 88 1018.3
20260831053123 24 32 0.0 1.6 0.00 0.00 0.00 88 1018.3
20260831053030 24 32 0.0 1.6 0.00 0.00 0.00 88 1018.3
20260831052922 24 32 0.0 1.6 0.00 0.00 0.00 88 1018.3
20260831052829 24 32 0.0 1.6 0.00 0.00 0.00 88 1018.3
20260831052756 24 32 0.0 1.6 0.00 0.00 0.00 88 1018.2
20260831052622 24 32 0.0 1.6 0.00 0.00 0.00 88 1018.2
20260831052530 24 32 0.0 1.6 0.00 0.00 0.00 88 1018.3
20260831052437 24 32 0.0 0.0 0.00 0.00 0.00 87 1018.3
20260831052330 24 32 0.0 0.0 0.00 0.00 0.00 88 1018.2
20260831052237 24 32 0.0 0.0 0.00 0.00 0.00 88 1018.3
20260831052145 24 32 0.0 0.0 0.00 0.00 0.00 88 1018.3
20260831052032 24 32 0.0 0.0 0.00 0.00 0.00 88 1018.2
20260831052000 24 32 0.0 0.0 0.00 0.00 0.00 88 1018.3
20260831051854 24 32 0.0 1.6 0.00 0.00 0.00 88 1018.3
20260831051628 24 32 0.0 3.2 0.00 0.00 0.00 88 1018.2
20260831051556 24 32 0.0 3.2 0.00 0.00 0.00 88 1018.2
20260831051422 24 32 0.0 3.2 0.00 0.00 0.00 88 1018.2
20260831051330 24 32 0.0 3.2 0.00 0.00 0.00 88 1018.3
20260831051238 24 32 0.0 3.2 0.00 0.00 0.00 88 1018.3
20260831051130 24 32 0.0 3.2 0.00 0.00 0.00 88 1018.2
20260831051036 24 32 0.0 3.2 0.00 0.00 0.00 88 1018.2
20260831050923 24 32 1.6 3.2 0.00 0.00 0.00 88 1018.2
20260831050831 24 32 1.6 3.2 0.00 0.00 0.00 87 1018.3
20260831050738 24 32 1.6 3.2 0.00 0.00 0.00 87 1018.2
20260831050629 24 32 1.6 3.2 0.00 0.00 0.00 88 1018.2
20260831050537 24 32 1.6 3.2 0.00 0.00 0.00 88 1018.2
20260831050425 24 32 0.0 1.6 0.00 0.00 0.00 88 1018.2
20260831050355 24 32 0.0 0.0 0.00 0.00 0.00 88 1018.2
20260831050127 24 32 0.0 1.6 0.00 0.00 0.00 88 1018.3
20260831050039 24 32 0.0 1.6 0.00 0.00 0.00 88 1018.2
20260831045926 24 32 0.0 1.6 0.00 0.00 0.00 87 1018.3
20260831045833 24 32 0.0 1.6 0.00 0.00 0.00 87 1018.3
20260831045720 24 32 0.0 1.6 0.00 0.00 0.00 87 1018.3
20260831045627 24 32 0.0 3.2 0.00 0.00 0.00 87 1018.3
20260831045555 24 32 0.0 3.2 0.00 0.00 0.00 88 1018.3
20260831045445 24 32 0.0 3.2 0.00 0.00 0.00 88 1018.3
20260831045332 24 32 0.0 3.2 0.00 0.00 0.00 88 1018.3
20260831045239 24 32 0.0 3.2 0.00 0.00 0.00 88 1018.3
20260831045126 24 32 1.6 3.2 0.00 0.00 0.00 88 1018.3
20260831045034 24 32 1.6 3.2 0.00 0.00 0.00 88 1018.3
20260831045002 24 32 1.6 3.2 0.00 0.00 0.00 88 1018.3
20260831044934 24 32 1.6 4.8 0.00 0.00 0.00 87 1018.2
20260831044627 24 32 0.0 4.8 0.00 0.00 0.00 87 1018.2
20260831044533 24 32 0.0 4.8 0.00 0.00 0.00 87 1018.2
20260831044421 24 32 1.6 4.8 0.00 0.00 0.00 87 1018.2
20260831044334 24 32 3.2 4.8 0.00 0.00 0.00 87 1018.2
20260831044221 24 32 3.2 4.8 0.00 0.00 0.00 87 1018.2
20260831044130 24 32 3.2 4.8 0.00 0.00 0.00 87 1018.2
20260831044037 24 32 3.2 4.8 0.00 0.00 0.00 87 1018.2
20260831043925 24 32 3.2 4.8 0.00 0.00 0.00 86 1018.2
20260831043852 24 32 1.6 4.8 0.00 0.00 0.00 86 1018.2
20260831043741 24 11 1.6 4.8 0.00 0.00 0.00 85 1018.2
20260831043627 24 11 1.6 4.8 0.00 0.00 0.00 85 1018.1
20260831043535 24 11 3.2 4.8 0.00 0.00 0.00 85 1018.2
20260831043443 24 11 3.2 4.8 0.00 0.00 0.00 85 1018.1
20260831043412 25 11 3.2 3.2 0.00 0.00 0.00 86 1018.1
20260831043130 25 11 1.6 4.8 0.00 0.00 0.00 86 1018.1
20260831043036 25 11 1.6 4.8 0.00 0.00 0.00 86 1018.1
20260831042924 25 11 1.6 4.8 0.00 0.00 0.00 86 1018.2
20260831042831 25 11 1.6 4.8 0.00 0.00 0.00 86 1018.2
20260831042739 25 11 1.6 4.8 0.00 0.00 0.00 86 1018.2
20260831042626 25 11 1.6 4.8 0.00 0.00 0.00 86 1018.3
20260831042558 25 11 3.2 4.8 0.00 0.00 0.00 86 1018.2
20260831042424 25 11 3.2 4.8 0.00 0.00 0.00 86 1018.2
20260831042330 25 11 3.2 4.8 0.00 0.00 0.00 86 1018.2
20260831042237 25 11 3.2 4.8 0.00 0.00 0.00 86 1018.2
20260831042145 25 11 3.2 4.8 0.00 0.00 0.00 86 1018.3
20260831042032 25 11 3.2 4.8 0.00 0.00 0.00 85 1018.2
20260831041923 25 11 3.2 4.8 0.00 0.00 0.00 85 1018.3
20260831041854 25 11 3.2 4.8 0.00 0.00 0.00 85 1018.3
20260831041535 25 11 3.2 4.8 0.00 0.00 0.00 85 1018.4
20260831041444 25 11 3.2 4.8 0.00 0.00 0.00 85 1018.3
20260831041415 25 11 3.2 3.2 0.00 0.00 0.00 85 1018.3
20260831041321 25 11 1.6 3.2 0.00 0.00 0.00 86 1018.4
20260831041127 25 11 0.0 3.2 0.00 0.00 0.00 86 1018.4
20260831041035 25 11 0.0 3.2 0.00 0.00 0.00 86 1018.3
20260831040922 25 11 0.0 3.2 0.00 0.00 0.00 85 1018.4
20260831040831 25 11 0.0 3.2 0.00 0.00 0.00 85 1018.4
20260831040722 25 11 0.0 3.2 0.00 0.00 0.00 85 1018.4
20260831040628 25 11 1.6 3.2 0.00 0.00 0.00 85 1018.3
20260831040537 25 11 1.6 3.2 0.00 0.00 0.00 85 1018.3
20260831040445 25 11 1.6 3.2 0.00 0.00 0.00 84 1018.4
20260831040415 25 11 1.6 3.2 0.00 0.00 0.00 82 1018.4
20260831040130 25 11 1.6 3.2 0.00 0.00 0.00 83 1018.4
20260831040038 25 11 1.6 3.2 0.00 0.00 0.00 82 1018.3
20260831035925 25 11 1.6 3.2 0.00 0.00 0.00 82 1018.2
20260831035833 25 11 0.0 1.6 0.00 0.00 0.00 82 1018.4
20260831035720 25 11 0.0 0.0 0.00 0.00 0.00 83 1018.2
20260831035647 25 11 0.0 0.0 0.00 0.00 0.00 83 1018.2
20260831035538 25 11 0.0 0.0 0.00 0.00 0.00 83 1018.3
20260831035425 25 11 0.0 0.0 0.00 0.00 0.00 83 1018.3
20260831035333 25 11 0.0 0.0 0.00 0.00 0.00 84 1018.2
20260831035221 25 11 0.0 0.0 0.00 0.00 0.00 84 1018.2
20260831035129 25 11 0.0 0.0 0.00 0.00 0.00 84 1018.2
20260831035019 25 11 0.0 0.0 0.00 0.00 0.00 84 1018.2
20260831034927 25 11 0.0 0.0 0.00 0.00 0.00 84 1018.2
20260831034858 25 11 0.0 0.0 0.00 0.00 0.00 84 1018.2
20260831034632 25 11 0.0 0.0 0.00 0.00 0.00 84 1018.2
20260831034520 25 11 0.0 0.0 0.00 0.00 0.00 85 1018.3
20260831034452 25 11 0.0 0.0 0.00 0.00 0.00 85 1018.3
20260831034358 25 11 0.0 0.0 0.00 0.00 0.00 85 1018.3
20260831034224 25 11 0.0 0.0 0.00 0.00 0.00 85 1018.4
20260831034132 25 11 0.0 0.0 0.00 0.00 0.00 85 1018.3
20260831034019 25 11 0.0 0.0 0.00 0.00 0.00 85 1018.3
20260831033926 25 11 0.0 0.0 0.00 0.00 0.00 85 1018.3
20260831033838 25 11 0.0 0.0 0.00 0.00 0.00 84 1018.3
20260831033725 25 11 0.0 0.0 0.00 0.00 0.00 84 1018.3
20260831033631 25 11 0.0 0.0 0.00 0.00 0.00 84 1018.4
20260831033559 25 11 0.0 0.0 0.00 0.00 0.00 84 1018.3
20260831033425 25 11 0.0 0.0 0.00 0.00 0.00 84 1018.3
20260831033400 25 11 0.0 0.0 0.00 0.00 0.00 84 1018.3
20260831033153 25 11 0.0 0.0 0.00 0.00 0.00 84 1018.3
20260831033021 25 11 0.0 0.0 0.00 0.00 0.00 84 1018.3
20260831032929 25 11 0.0 0.0 0.00 0.00 0.00 84 1018.3
20260831032856 25 11 0.0 0.0 0.00 0.00 0.00 84 1018.4
20260831032743 25 11 0.0 0.0 0.00 0.00 0.00 84 1018.4
20260831032629 25 11 0.0 0.0 0.00 0.00 0.00 84 1018.4
20260831032521 25 11 0.0 0.0 0.00 0.00 0.00 84 1018.4
20260831032426 25 11 0.0 0.0 0.00 0.00 0.00 84 1018.4
20260831032335 25 11 0.0 0.0 0.00 0.00 0.00 84 1018.3
20260831032222 25 11 0.0 0.0 0.00 0.00 0.00 84 1018.3
20260831032130 25 11 0.0 0.0 0.00 0.00 0.00 84 1018.4
20260831032021 25 11 0.0 0.0 0.00 0.00 0.00 84 1018.4
20260831031929 25 11 0.0 0.0 0.00 0.00 0.00 85 1018.4
20260831031859 26 11 0.0 0.0 0.00 0.00 0.00 84 1018.4
20260831031632 26 11 0.0 0.0 0.00 0.00 0.00 84 1018.5
20260831031524 25 11 0.0 0.0 0.00 0.00 0.00 84 1018.5
20260831031431 26 11 0.0 0.0 0.00 0.00 0.00 84 1018.6
20260831031320 26 11 0.0 0.0 0.00 0.00 0.00 84 1018.6
20260831031227 26 11 0.0 0.0 0.00 0.00 0.00 84 1018.5
20260831031134 26 11 0.0 0.0 0.00 0.00 0.00 84 1018.6
20260831031021 26 11 0.0 0.0 0.00 0.00 0.00 83 1018.5
20260831030953 26 11 0.0 0.0 0.00 0.00 0.00 83 1018.5
20260831030839 26 11 0.0 0.0 0.00 0.00 0.00 83 1018.6
20260831030726 26 11 0.0 0.0 0.00 0.00 0.00 83 1018.6
20260831030631 26 11 0.0 0.0 0.00 0.00 0.00 83 1018.5
20260831030557 26 11 0.0 0.0 0.00 0.00 0.00 83 1018.5
20260831030424 26 11 0.0 0.0 0.00 0.00 0.00 83 1018.5
20260831030357 26 11 0.0 0.0 0.00 0.00 0.00 83 1018.5
20260831030131 26 11 0.0 0.0 0.00 0.00 0.00 83 1018.7
20260831030038 26 11 0.0 0.0 0.00 0.00 0.00 83 1018.6
20260831025926 26 11 0.0 1.6 0.00 0.00 0.00 82 1018.6
20260831025833 26 11 0.0 1.6 0.00 0.00 0.00 81 1018.8
20260831025723 26 11 0.0 1.6 0.00 0.00 0.00 80 1018.7
20260831025631 26 11 0.0 3.2 0.00 0.00 0.00 80 1018.6
20260831025539 26 11 0.0 3.2 0.00 0.00 0.00 80 1018.7
20260831025426 26 11 0.0 3.2 0.00 0.00 0.00 79 1018.7
20260831025354 26 11 0.0 3.2 0.00 0.00 0.00 80 1018.7
20260831025222 26 11 0.0 3.2 0.00 0.00 0.00 79 1018.7
20260831025133 26 11 1.6 3.2 0.00 0.00 0.00 79 1018.7
20260831025021 26 11 1.6 4.8 0.00 0.00 0.00 79 1018.7
20260831024927 26 11 1.6 4.8 0.00 0.00 0.00 79 1018.7
20260831024857 26 11 1.6 4.8 0.00 0.00 0.00 79 1018.7
20260831024651 26 11 1.6 4.8 0.00 0.00 0.00 79 1018.6
20260831024521 26 11 1.6 4.8 0.00 0.00 0.00 80 1018.8
20260831024429 26 11 3.2 4.8 0.00 0.00 0.00 80 1018.7
20260831024335 26 11 3.2 4.8 0.00 0.00 0.00 79 1018.7
20260831024223 26 11 3.2 4.8 0.00 0.00 0.00 79 1018.7
20260831024131 26 11 3.2 4.8 0.00 0.00 0.00 79 1018.7
20260831024021 26 11 3.2 4.8 0.00 0.00 0.00 79 1018.6
20260831023948 26 11 3.2 4.8 0.00 0.00 0.00 79 1018.7
20260831023855 26 11 3.2 4.8 0.00 0.00 0.00 79 1018.7
20260831023722 26 11 3.2 4.8 0.00 0.00 0.00 79 1018.7
20260831023629 26 11 3.2 4.8 0.00 0.00 0.00 78 1018.7
20260831023535 26 38 3.2 4.8 0.00 0.00 0.00 79 1018.7
20260831023428 26 38 1.6 4.8 0.00 0.00 0.00 80 1018.6
20260831023359 26 38 1.6 3.2 0.00 0.00 0.00 80 1018.6
20260831023132 26 38 0.0 1.6 0.00 0.00 0.00 80 1018.6
20260831023019 26 38 0.0 0.0 0.00 0.00 0.00 80 1018.6
20260831022926 26 38 0.0 0.0 0.00 0.00 0.00 79 1018.6
20260831022856 26 38 0.0 0.0 0.00 0.00 0.00 79 1018.5
20260831022722 26 38 0.0 0.0 0.00 0.00 0.00 80 1018.5
20260831022630 26 38 0.0 0.0 0.00 0.00 0.00 80 1018.5
20260831022537 26 38 0.0 0.0 0.00 0.00 0.00 80 1018.5
20260831022426 26 38 0.0 0.0 0.00 0.00 0.00 79 1018.6
20260831022333 26 38 0.0 0.0 0.00 0.00 0.00 79 1018.5
20260831022246 26 38 0.0 1.6 0.00 0.00 0.00 78 1018.4
20260831022132 26 38 0.0 1.6 0.00 0.00 0.00 79 1018.5
20260831022038 26 38 0.0 1.6 0.00 0.00 0.00 79 1018.5
20260831021926 26 38 0.0 1.6 0.00 0.00 0.00 78 1018.4
20260831021859 26 38 0.0 1.6 0.00 0.00 0.00 78 1018.4
20260831021632 26 38 0.0 3.2 0.00 0.00 0.00 78 1018.4
20260831021520 26 38 0.0 3.2 0.00 0.00 0.00 78 1018.4
20260831021427 26 38 0.0 3.2 0.00 0.00 0.00 78 1018.4
20260831021335 26 38 0.0 3.2 0.00 0.00 0.00 78 1018.3
20260831021221 27 38 0.0 3.2 0.00 0.00 0.00 78 1018.4
20260831021131 27 38 0.0 3.2 0.00 0.00 0.00 77 1018.4
20260831021059 27 38 1.6 3.2 0.00 0.00 0.00 77 1018.3
20260831020947 27 38 1.6 3.2 0.00 0.00 0.00 77 1018.3
20260831020833 27 38 1.6 3.2 0.00 0.00 0.00 77 1018.3
20260831020721 27 38 3.2 3.2 0.00 0.00 0.00 76 1018.3
20260831020628 27 38 3.2 3.2 0.00 0.00 0.00 75 1018.4
20260831020539 27 107 3.2 3.2 0.00 0.00 0.00 76 1018.3
20260831020427 27 107 1.6 3.2 0.00 0.00 0.00 75 1018.3
20260831020358 27 107 1.6 3.2 0.00 0.00 0.00 75 1018.3
20260831020132 27 107 0.0 1.6 0.00 0.00 0.00 75 1018.3
20260831020023 27 107 0.0 1.6 0.00 0.00 0.00 75 1018.3
20260831015930 27 107 0.0 1.6 0.00 0.00 0.00 75 1018.3
20260831015836 27 107 0.0 1.6 0.00 0.00 0.00 75 1018.2
20260831015744 27 107 0.0 1.6 0.00 0.00 0.00 74 1018.3
20260831015631 27 107 0.0 1.6 0.00 0.00 0.00 74 1018.3
20260831015538 27 107 0.0 1.6 0.00 0.00 0.00 75 1018.3
20260831015430 27 107 0.0 3.2 0.00 0.00 0.00 75 1018.3
20260831015339 27 107 0.0 3.2 0.00 0.00 0.00 75 1018.1
20260831015226 27 107 0.0 3.2 0.00 0.00 0.00 75 1018.2
20260831015132 27 107 1.6 3.2 0.00 0.00 0.00 75 1018.2
20260831015020 27 107 1.6 3.2 0.00 0.00 0.00 75 1018.1
20260831014946 27 107 1.6 3.2 0.00 0.00 0.00 75 1018.0
20260831014921 27 107 1.6 3.2 0.00 0.00 0.00 73 1018.0
20260831014633 28 107 1.6 3.2 0.00 0.00 0.00 74 1018.1
20260831014520 28 107 1.6 3.2 0.00 0.00 0.00 73 1018.1
20260831014428 28 107 1.6 3.2 0.00 0.00 0.00 73 1018.1
20260831014320 28 107 1.6 3.2 0.00 0.00 0.00 72 1018.1
20260831014228 28 107 1.6 3.2 0.00 0.00 0.00 73 1018.1
20260831014136 28 107 1.6 3.2 0.00 0.00 0.00 72 1018.1
20260831014043 28 107 1.6 3.2 0.00 0.00 0.00 71 1018.0
20260831013929 28 107 1.6 3.2 0.00 0.00 0.00 72 1018.0
20260831013837 28 107 1.6 3.2 0.00 0.00 0.00 72 1018.0
20260831013745 28 107 1.6 3.2 0.00 0.00 0.00 72 1018.1
20260831013656 28 107 1.6 3.2 0.00 0.00 0.00 71 1018.0
20260831013522 28 107 1.6 3.2 0.00 0.00 0.00 71 1018.1
20260831013449 28 107 1.6 3.2 0.00 0.00 0.00 71 1018.0
20260831013420 28 107 1.6 3.2 0.00 0.00 0.00 71 1018.0
20260831013132 28 107 1.6 3.2 0.00 0.00 0.00 71 1018.0
20260831013024 28 107 0.0 3.2 0.00 0.00 0.00 71 1018.1
20260831012952 28 107 0.0 3.2 0.00 0.00 0.00 71 1018.0
20260831012838 28 107 0.0 3.2 0.00 0.00 0.00 70 1018.1
20260831012725 28 107 0.0 3.2 0.00 0.00 0.00 70 1018.1
20260831012653 28 107 1.6 3.2 0.00 0.00 0.00 70 1018.0
20260831012520 28 107 1.6 3.2 0.00 0.00 0.00 69 1018.0
20260831012431 28 107 0.0 1.6 0.00 0.00 0.00 69 1018.0
20260831012338 28 107 0.0 1.6 0.00 0.00 0.00 70 1017.9
20260831012225 29 107 0.0 1.6 0.00 0.00 0.00 70 1018.0
20260831012134 29 107 0.0 3.2 0.00 0.00 0.00 70 1017.9
20260831012021 29 107 0.0 3.2 0.00 0.00 0.00 69 1018.0
20260831011929 29 107 0.0 3.2 0.00 0.00 0.00 68 1017.9
20260831011905 29 107 0.0 4.8 0.00 0.00 0.00 68 1017.9
20260831011659 29 107 0.0 4.8 0.00 0.00 0.00 68 1017.9
20260831011525 29 107 1.6 4.8 0.00 0.00 0.00 68 1017.9
20260831011432 29 107 1.6 4.8 0.00 0.00 0.00 68 1017.8
20260831011324 29 107 1.6 4.8 0.00 0.00 0.00 68 1017.8
20260831011230 29 107 3.2 6.4 0.00 0.00 0.00 68 1017.7
20260831011137 29 107 3.2 6.4 0.00 0.00 0.00 68 1017.7
20260831011025 29 107 3.2 6.4 0.00 0.00 0.00 67 1017.6
20260831010932 29 115 3.2 6.4 0.00 0.00 0.00 68 1017.6
20260831010838 29 120 3.2 6.4 0.00 0.00 0.00 68 1017.6
20260831010729 29 89 3.2 6.4 0.00 0.00 0.00 67 1017.6
20260831010636 29 119 3.2 6.4 0.00 0.00 0.00 67 1017.6
20260831010524 30 104 3.2 6.4 0.00 0.00 0.00 67 1017.6
20260831010432 30 124 3.2 8.0 0.00 0.00 0.00 67 1017.5
20260831010403 30 107 3.2 8.0 0.00 0.00 0.00 66 1017.5
20260831010121 30 117 3.2 8.0 0.00 0.00 0.00 66 1017.5
20260831010029 30 128 3.2 8.0 0.00 0.00 0.00 66 1017.5
20260831005956 30 136 3.2 8.0 0.00 0.00 0.00 66 1017.5
20260831005823 30 122 3.2 8.0 0.00 0.00 0.00 66 1017.4
20260831005731 30 128 3.2 8.0 0.00 0.00 0.00 66 1017.5
20260831005622 30 131 3.2 8.0 0.00 0.00 0.00 66 1017.4
20260831005529 30 128 4.8 8.0 0.00 0.00 0.00 66 1017.4
20260831005437 30 145 4.8 8.0 0.00 0.00 0.00 66 1017.4
20260831005325 30 142 3.2 8.0 0.00 0.00 0.00 66 1017.3
20260831005233 30 121 3.2 6.4 0.00 0.00 0.00 65 1017.4
20260831005139 30 105 3.2 6.4 0.00 0.00 0.00 65 1017.4
20260831005031 30 123 3.2 6.4 0.00 0.00 0.00 66 1017.4
20260831004959 30 120 3.2 6.4 0.00 0.00 0.00 66 1017.4
20260831004930 30 101 3.2 6.4 0.00 0.00 0.00 65 1017.4
20260831004643 30 131 3.2 6.4 0.00 0.00 0.00 65 1017.4
20260831004528 30 149 3.2 8.0 0.00 0.00 0.00 65 1017.4
20260831004455 30 161 1.6 11.3 0.00 0.00 0.00 65 1017.5
20260831004327 30 143 1.6 11.3 0.00 0.00 0.00 65 1017.4
20260831004253 30 143 1.6 11.3 0.00 0.00 0.00 65 1017.4
20260831004200 30 161 1.6 11.3 0.00 0.00 0.00 65 1017.4
20260831004046 30 146 3.2 11.3 0.00 0.00 0.00 65 1017.4
20260831003933 30 150 4.8 11.3 0.00 0.00 0.00 65 1017.4
20260831003822 30 174 4.8 11.3 0.00 0.00 0.00 65 1017.4
20260831003733 30 145 6.4 11.3 0.00 0.00 0.00 65 1017.5
20260831003620 30 138 4.8 11.3 0.00 0.00 0.00 64 1017.5
20260831003528 30 137 4.8 8.0 0.00 0.00 0.00 65 1017.4
20260831003435 30 190 4.8 8.0 0.00 0.00 0.00 64 1017.4
20260831003406 30 174 4.8 8.0 0.00 0.00 0.00 65 1017.4
20260831003124 30 139 4.8 8.0 0.00 0.00 0.00 64 1017.4
20260831003031 30 123 4.8 8.0 0.00 0.00 0.00 64 1017.3
20260831002938 30 159 3.2 8.0 0.00 0.00 0.00 64 1017.4
20260831002826 30 138 3.2 12.9 0.00 0.00 0.00 64 1017.3
20260831002733 30 176 3.2 12.9 0.00 0.00 0.00 64 1017.4
20260831002645 30 213 3.2 12.9 0.00 0.00 0.00 64 1017.4
20260831002530 30 121 3.2 12.9 0.00 0.00 0.00 64 1017.3
20260831002437 30 157 3.2 12.9 0.00 0.00 0.00 64 1017.3
20260831002323 30 153 4.8 12.9 0.00 0.00 0.00 64 1017.3
20260831002231 30 139 4.8 12.9 0.00 0.00 0.00 64 1017.4
20260831002138 30 165 6.4 12.9 0.00 0.00 0.00 64 1017.4
20260831002029 30 189 6.4 11.3 0.00 0.00 0.00 64 1017.4
20260831001937 30 208 4.8 12.9 0.00 0.00 0.00 64 1017.4
20260831001908 30 171 3.2 12.9 0.00 0.00 0.00 64 1017.4
20260831001620 30 171 4.8 12.9 0.00 0.00 0.00 63 1017.4
20260831001531 30 171 4.8 12.9 0.00 0.00 0.00 63 1017.4
20260831001458 30 165 4.8 12.9 0.00 0.00 0.00 63 1017.4
20260831001326 30 171 4.8 12.9 0.00 0.00 0.00 63 1017.5
20260831001232 30 171 8.0 12.9 0.00 0.00 0.00 63 1017.5
20260831001120 30 180 6.4 12.9 0.00 0.00 0.00 63 1017.5
20260831001028 31 200 4.8 12.9 0.00 0.00 0.00 63 1017.6
20260831000921 31 209 8.0 12.9 0.00 0.00 0.00 63 1017.5
20260831000829 31 149 8.0 12.9 0.00 0.00 0.00 63 1017.4
20260831000736 31 136 6.4 12.9 0.00 0.00 0.00 63 1017.5
20260831000624 31 140 4.8 11.3 0.00 0.00 0.00 63 1017.5
20260831000552 31 180 6.4 11.3 0.00 0.00 0.00 63 1017.5
20260831000439 31 153 6.4 11.3 0.00 0.00 0.00 63 1017.5
20260831000355 31 180 6.4 11.3 0.00 0.00 0.00 63 1017.5
20260831000127 31 196 6.4 11.3 0.00 0.00 0.00 63 1017.5
20260831000034 31 147 8.0 11.3 0.00 0.00 0.00 63 1017.6
20260830235922 31 161 6.4 11.3 0.00 0.00 0.00 63 1017.6
20260830235851 31 159 4.8 8.0 0.00 0.00 0.00 63 1017.5
20260830235721 31 191 4.8 8.0 0.00 0.00 0.00 63 1017.5
20260830235628 31 117 4.8 11.3 0.00 0.00 0.00 63 1017.5
20260830235535 31 142 6.4 11.3 0.00 0.00 0.00 62 1017.5
20260830235422 31 138 6.4 11.3 0.00 0.00 0.00 63 1017.6
20260830235329 31 115 4.8 11.3 0.00 0.00 0.00 62 1017.6
20260830235220 31 185 4.8 11.3 0.00 0.00 0.00 62 1017.5
20260830235127 31 178 3.2 11.3 0.00 0.00 0.00 62 1017.5
20260830235034 31 162 3.2 12.9 0.00 0.00 0.00 62 1017.5
20260830235002 31 205 4.8 12.9 0.00 0.00 0.00 62 1017.5
20260830234933 31 177 4.8 12.9 0.00 0.00 0.00 62 1017.4
20260830234628 31 186 3.2 12.9 0.00 0.00 0.00 62 1017.5
20260830234536 31 142 3.2 12.9 0.00 0.00 0.00 61 1017.5
20260830234423 31 221 6.4 12.9 0.00 0.00 0.00 61 1017.5
20260830234349 31 165 8.0 12.9 0.00 0.00 0.00 61 1017.4
20260830234236 31 164 8.0 12.9 0.00 0.00 0.00 61 1017.4
20260830234123 31 172 8.0 12.9 0.00 0.00 0.00 61 1017.4
20260830234029 31 181 9.7 12.9 0.00 0.00 0.00 61 1017.5
20260830233921 31 184 6.4 12.9 0.00 0.00 0.00 61 1017.4
20260830233829 31 202 4.8 12.9 0.00 0.00 0.00 61 1017.4
20260830233736 31 200 6.4 12.9 0.00 0.00 0.00 61 1017.5
20260830233643 31 187 6.4 12.9 0.00 0.00 0.00 60 1017.5
20260830233530 31 164 6.4 12.9 0.00 0.00 0.00 60 1017.5
20260830233437 31 197 6.4 12.9 0.00 0.00 0.00 61 1017.5
20260830233412 31 186 8.0 14.5 0.00 0.00 0.00 60 1017.5
20260830233125 32 159 9.7 14.5 0.00 0.00 0.00 60 1017.5
20260830233031 32 146 9.7 12.9 0.00 0.00 0.00 60 1017.5
20260830232959 32 161 8.0 12.9 0.00 0.00 0.00 60 1017.5
20260830232830 32 135 8.0 12.9 0.00 0.00 0.00 60 1017.5
20260830232738 32 142 6.4 11.3 0.00 0.00 0.00 60 1017.6
20260830232625 32 115 4.8 9.7 0.00 0.00 0.00 60 1017.6
20260830232531 32 179 6.4 9.7 0.00 0.00 0.00 60 1017.6
20260830232438 32 229 6.4 9.7 0.00 0.00 0.00 59 1017.6
20260830232325 32 217 6.4 9.7 0.00 0.00 0.00 59 1017.6
20260830232236 32 192 6.4 9.7 0.00 0.00 0.00 59 1017.6
20260830232143 32 185 6.4 9.7 0.00 0.00 0.00 59 1017.6
20260830232030 32 200 6.4 9.7 0.00 0.00 0.00 59 1017.6
20260830231959 32 204 4.8 9.7 0.00 0.00 0.00 59 1017.6
20260830231908 32 209 4.8 11.3 0.00 0.00 0.00 59 1017.6
20260830231625 32 176 4.8 9.7 0.00 0.00 0.00 60 1017.6
20260830231533 32 193 6.4 9.7 0.00 0.00 0.00 59 1017.5
20260830231420 32 200 4.8 9.7 0.00 0.00 0.00 60 1017.6
20260830231327 32 214 4.8 9.7 0.00 0.00 0.00 60 1017.6
20260830231255 32 180 4.8 11.3 0.00 0.00 0.00 60 1017.6
20260830231122 32 161 4.8 11.3 0.00 0.00 0.00 60 1017.6
20260830231034 32 212 6.4 11.3 0.00 0.00 0.00 60 1017.6
20260830230920 32 231 6.4 11.3 0.00 0.00 0.00 60 1017.6
20260830230829 32 225 6.4 12.9 0.00 0.00 0.00 60 1017.6
20260830230736 32 176 6.4 14.5 0.00 0.00 0.00 59 1017.6
20260830230624 32 213 6.4 14.5 0.00 0.00 0.00 60 1017.6
20260830230553 32 199 6.4 14.5 0.00 0.00 0.00 59 1017.6
20260830230443 32 180 6.4 14.5 0.00 0.00 0.00 59 1017.6
20260830230413 32 161 6.4 14.5 0.00 0.00 0.00 60 1017.6
20260830230127 32 182 9.7 14.5 0.00 0.00 0.00 60 1017.6
20260830230033 32 147 9.7 14.5 0.00 0.00 0.00 60 1017.6
20260830225925 32 178 9.7 16.1 0.00 0.00 0.00 59 1017.6
20260830225833 32 222 9.7 16.1 0.00 0.00 0.00 59 1017.5
20260830225800 32 177 8.0 16.1 0.00 0.00 0.00 59 1017.6
20260830225626 32 208 3.2 14.5 0.00 0.00 0.00 59 1017.6
20260830225534 32 162 3.2 14.5 0.00 0.00 0.00 59 1017.5
20260830225421 32 225 6.4 14.5 0.00 0.00 0.00 59 1017.6
20260830225353 32 179 6.4 14.5 0.00 0.00 0.00 59 1017.5
20260830225300 32 142 6.4 14.5 0.00 0.00 0.00 59 1017.6
20260830225126 32 169 6.4 14.5 0.00 0.00 0.00 59 1017.5
20260830225033 32 172 6.4 14.5 0.00 0.00 0.00 59 1017.5
20260830224941 32 150 6.4 16.1 0.00 0.00 0.00 58 1017.5
20260830224919 32 199 6.4 16.1 0.00 0.00 0.00 59 1017.5
20260830224651 32 178 6.4 16.1 0.00 0.00 0.00 59 1017.4
20260830224537 32 188 6.4 16.1 0.00 0.00 0.00 58 1017.5
20260830224424 32 217 9.7 16.1 0.00 0.00 0.00 58 1017.4
20260830224331 32 194 11.3 16.1 0.00 0.00 0.00 59 1017.5
20260830224239 32 151 11.3 16.1 0.00 0.00 0.00 59 1017.5
20260830224130 32 143 9.7 16.1 0.00 0.00 0.00 58 1017.4
20260830224057 32 163 9.7 16.1 0.00 0.00 0.00 58 1017.4
20260830223924 32 142 8.0 16.1 0.00 0.00 0.00 58 1017.4
20260830223831 32 134 8.0 16.1 0.00 0.00 0.00 57 1017.4
20260830223738 32 173 9.7 16.1 0.00 0.00 0.00 57 1017.4
20260830223625 32 193 9.7 16.1 0.00 0.00 0.00 58 1017.4
20260830223537 32 192 9.7 17.7 0.00 0.00 0.00 57 1017.4
20260830223424 32 123 9.7 17.7 0.00 0.00 0.00 58 1017.5
20260830223355 32 171 8.0 14.5 0.00 0.00 0.00 58 1017.5
20260830223148 32 142 8.0 14.5 0.00 0.00 0.00 57 1017.4
20260830223033 32 190 8.0 14.5 0.00 0.00 0.00 57 1017.5
20260830222924 32 168 9.7 14.5 0.00 0.00 0.00 58 1017.4
20260830222852 32 173 8.0 14.5 0.00 0.00 0.00 57 1017.5
20260830222759 32 223 4.8 14.5 0.00 0.00 0.00 58 1017.4
20260830222625 32 130 4.8 17.7 0.00 0.00 0.00 58 1017.4
20260830222532 32 169 8.0 17.7 0.00 0.00 0.00 58 1017.4
20260830222420 32 148 9.7 17.7 0.00 0.00 0.00 58 1017.4
20260830222347 33 159 9.7 17.7 0.00 0.00 0.00 58 1017.4
20260830222236 33 144 9.7 17.7 0.00 0.00 0.00 57 1017.4
20260830222125 33 180 8.0 17.7 0.00 0.00 0.00 57 1017.4
20260830222032 33 200 8.0 17.7 0.00 0.00 0.00 58 1017.4
20260830221939 33 182 8.0 17.7 0.00 0.00 0.00 57 1017.5
20260830221854 33 181 8.0 14.5 0.00 0.00 0.00 57 1017.5
20260830221627 33 191 8.0 14.5 0.00 0.00 0.00 58 1017.6
20260830221555 33 175 8.0 14.5 0.00 0.00 0.00 57 1017.5
20260830221420 33 148 9.7 14.5 0.00 0.00 0.00 57 1017.5
20260830221327 33 140 9.7 14.5 0.00 0.00 0.00 58 1017.5
20260830221236 33 140 9.7 17.7 0.00 0.00 0.00 57 1017.5
20260830221127 33 160 8.0 12.9 0.00 0.00 0.00 57 1017.6
20260830221034 33 191 4.8 12.9 0.00 0.00 0.00 58 1017.5
20260830220923 33 159 3.2 14.5 0.00 0.00 0.00 58 1017.5
20260830220830 33 139 3.2 14.5 0.00 0.00 0.00 57 1017.5
20260830220758 33 132 4.8 14.5 0.00 0.00 0.00 57 1017.6
20260830220644 33 47 8.0 14.5 0.00 0.00 0.00 57 1017.5
20260830220551 33 100 8.0 14.5 0.00 0.00 0.00 58 1017.5
20260830220441 33 118 6.4 14.5 0.00 0.00 0.00 58 1017.4
20260830220412 33 125 6.4 14.5 0.00 0.00 0.00 58 1017.4
20260830220146 33 215 8.0 14.5 0.00 0.00 0.00 57 1017.4
20260830220031 33 190 8.0 19.3 0.00 0.00 0.00 56 1017.5
20260830215921 33 176 4.8 19.3 0.00 0.00 0.00 58 1017.4
20260830215828 33 190 6.4 19.3 0.00 0.00 0.00 57 1017.5
20260830215737 33 209 6.4 19.3 0.00 0.00 0.00 57 1017.4
20260830215623 33 154 6.4 19.3 0.00 0.00 0.00 57 1017.5
20260830215531 33 208 8.0 19.3 0.00 0.00 0.00 58 1017.5
20260830215420 33 158 9.7 19.3 0.00 0.00 0.00 59 1017.6
20260830215330 33 171 9.7 19.3 0.00 0.00 0.00 57 1017.5
20260830215237 33 213 11.3 19.3 0.00 0.00 0.00 57 1017.5
20260830215124 33 190 9.7 19.3 0.00 0.00 0.00 58 1017.6
20260830215033 33 136 9.7 16.1 0.00 0.00 0.00 58 1017.6
20260830214939 33 142 11.3 16.1 0.00 0.00 0.00 58 1017.6
20260830214854 33 123 9.7 17.7 0.00 0.00 0.00 58 1017.6
20260830214627 33 164 8.0 16.1 0.00 0.00 0.00 57 1017.7
20260830214535 33 139 8.0 16.1 0.00 0.00 0.00 58 1017.6
20260830214422 33 128 8.0 17.7 0.00 0.00 0.00 57 1017.6
20260830214330 33 182 6.4 17.7 0.00 0.00 0.00 57 1017.6
20260830214221 33 180 6.4 17.7 0.00 0.00 0.00 57 1017.6
20260830214129 33 187 6.4 17.7 0.00 0.00 0.00 57 1017.6
20260830214035 33 144 9.7 17.7 0.00 0.00 0.00 56 1017.6
20260830213922 33 163 12.9 17.7 0.00 0.00 0.00 56 1017.6
20260830213850 33 117 12.9 17.7 0.00 0.00 0.00 56 1017.6
20260830213721 33 156 12.9 17.7 0.00 0.00 0.00 56 1017.6
20260830213628 33 135 11.3 17.7 0.00 0.00 0.00 57 1017.7
20260830213535 33 162 11.3 17.7 0.00 0.00 0.00 56 1017.6
20260830213442 33 176 11.3 17.7 0.00 0.00 0.00 57 1017.6
20260830213413 33 157 11.3 17.7 0.00 0.00 0.00 57 1017.6
20260830213130 33 217 11.3 17.7 0.00 0.00 0.00 57 1017.5
20260830213036 33 212 9.7 16.1 0.00 0.00 0.00 57 1017.6
20260830212925 33 173 6.4 12.9 0.00 0.00 0.00 57 1017.6
20260830212832 33 207 3.2 12.9 0.00 0.00 0.00 56 1017.6
20260830212720 33 173 3.2 12.9 0.00 0.00 0.00 56 1017.6
20260830212627 33 123 3.2 12.9 0.00 0.00 0.00 56 1017.5
20260830212539 33 101 4.8 14.5 0.00 0.00 0.00 58 1017.6
20260830212446 33 125 9.7 14.5 0.00 0.00 0.00 56 1017.6
20260830212354 33 112 9.7 14.5 0.00 0.00 0.00 56 1017.5
20260830212220 33 189 6.4 16.1 0.00 0.00 0.00 56 1017.6
20260830212128 33 200 4.8 16.1 0.00 0.00 0.00 58 1017.6
20260830212034 33 173 4.8 16.1 0.00 0.00 0.00 58 1017.6
20260830211926 33 83 8.0 16.1 0.00 0.00 0.00 56 1017.5
20260830211857 33 215 9.7 16.1 0.00 0.00 0.00 56 1017.5
20260830211631 33 227 9.7 16.1 0.00 0.00 0.00 57 1017.7
20260830211539 33 200 9.7 16.1 0.00 0.00 0.00 56 1017.6
20260830211431 33 209 11.3 16.1 0.00 0.00 0.00 56 1017.6
20260830211338 33 160 9.7 16.1 0.00 0.00 0.00 56 1017.6
20260830211225 33 196 6.4 17.7 0.00 0.00 0.00 57 1017.6
20260830211132 33 184 4.8 17.7 0.00 0.00 0.00 57 1017.5
20260830211019 33 217 6.4 17.7 0.00 0.00 0.00 57 1017.6
20260830210927 33 221 8.0 17.7 0.00 0.00 0.00 57 1017.7
20260830210820 33 186 9.7 22.5 0.00 0.00 0.00 58 1017.7
20260830210727 33 196 11.3 22.5 0.00 0.00 0.00 57 1017.7
20260830210634 33 192 12.9 22.5 0.00 0.00 0.00 57 1017.7
20260830210520 33 186 11.3 22.5 0.00 0.00 0.00 56 1017.7
20260830210448 33 167 9.7 22.5 0.00 0.00 0.00 56 1017.6
20260830210422 33 205 11.3 22.5 0.00 0.00 0.00 57 1017.6
20260830210134 33 182 12.9 22.5 0.00 0.00 0.00 57 1017.7
20260830210021 33 212 12.9 20.9 0.00 0.00 0.00 56 1017.7
20260830205927 33 215 11.3 17.7 0.00 0.00 0.00 57 1017.8
20260830205834 33 219 9.7 17.7 0.00 0.00 0.00 58 1017.7
20260830205744 33 242 8.0 16.1 0.00 0.00 0.00 57 1017.7
20260830205631 33 138 9.7 16.1 0.00 0.00 0.00 56 1017.8
20260830205538 33 173 8.0 20.9 0.00 0.00 0.00 56 1017.7
20260830205425 33 150 6.4 20.9 0.00 0.00 0.00 57 1017.8
20260830205333 33 122 6.4 20.9 0.00 0.00 0.00 57 1017.8
20260830205240 33 124 8.0 20.9 0.00 0.00 0.00 58 1017.9
20260830205132 33 158 6.4 20.9 0.00 0.00 0.00 56 1017.9
20260830205038 33 133 6.4 20.9 0.00 0.00 0.00 57 1017.9
20260830204927 33 169 12.9 20.9 0.00 0.00 0.00 58 1018.0
20260830204857 33 152 14.5 20.9 0.00 0.00 0.00 58 1018.0
20260830204631 33 165 11.3 19.3 0.00 0.00 0.00 57 1017.9
20260830204522 33 175 8.0 16.1 0.00 0.00 0.00 57 1018.0
20260830204429 33 177 11.3 16.1 0.00 0.00 0.00 56 1018.0
20260830204337 33 165 11.3 16.1 0.00 0.00 0.00 57 1018.0
20260830204225 33 219 8.0 14.5 0.00 0.00 0.00 57 1018.0
20260830204132 33 190 9.7 17.7 0.00 0.00 0.00 58 1018.1
20260830204044 33 186 8.0 19.3 0.00 0.00 0.00 56 1018.0
20260830203950 33 167 4.8 19.3 0.00 0.00 0.00 57 1018.1
20260830203837 33 202 3.2 19.3 0.00 0.00 0.00 57 1018.0
20260830203745 33 113 3.2 19.3 0.00 0.00 0.00 58 1018.1
20260830203631 33 49 4.8 19.3 0.00 0.00 0.00 58 1018.0
20260830203520 33 51 8.0 19.3 0.00 0.00 0.00 57 1018.1
20260830203428 33 68 8.0 19.3 0.00 0.00 0.00 59 1018.1
20260830203402 33 17 9.7 19.3 0.00 0.00 0.00 59 1018.1
20260830203156 32 110 8.0 12.9 0.00 0.00 0.00 57 1018.2
20260830203022 32 107 8.0 16.1 0.00 0.00 0.00 58 1018.2
20260830202929 32 132 6.4 16.1 0.00 0.00 0.00 60 1018.2
20260830202856 32 128 8.0 16.1 0.00 0.00 0.00 59 1018.3
20260830202727 32 142 6.4 16.1 0.00 0.00 0.00 57 1018.2
20260830202634 32 129 6.4 16.1 0.00 0.00 0.00 59 1018.2
20260830202522 32 204 4.8 16.1 0.00 0.00 0.00 58 1018.3
20260830202429 32 181 8.0 16.1 0.00 0.00 0.00 56 1018.2
20260830202337 32 155 9.7 16.1 0.00 0.00 0.00 57 1018.2
20260830202229 32 198 8.0 17.7 0.00 0.00 0.00 58 1018.3
20260830202136 32 223 8.0 17.7 0.00 0.00 0.00 57 1018.2
20260830202022 32 96 9.7 17.7 0.00 0.00 0.00 57 1018.2
20260830201950 33 131 8.0 17.7 0.00 0.00 0.00 57 1018.2
20260830201859 33 115 9.7 17.7 0.00 0.00 0.00 60 1018.2
20260830201653 33 122 8.0 16.1 0.00 0.00 0.00 59 1018.3
20260830201523 33 140 9.7 16.1 0.00 0.00 0.00 58 1018.2
20260830201429 33 85 8.0 16.1 0.00 0.00 0.00 59 1018.3
20260830201337 33 139 6.4 16.1 0.00 0.00 0.00 57 1018.3
20260830201224 33 132 4.8 16.1 0.00 0.00 0.00 57 1018.3
20260830201132 33 236 4.8 16.1 0.00 0.00 0.00 57 1018.2
20260830201023 33 198 8.0 16.1 0.00 0.00 0.00 57 1018.3
20260830200951 33 138 9.7 16.1 0.00 0.00 0.00 58 1018.3
20260830200837 33 156 9.7 17.7 0.00 0.00 0.00 57 1018.3
20260830200746 33 186 8.0 16.1 0.00 0.00 0.00 59 1018.3
20260830200634 33 190 8.0 16.1 0.00 0.00 0.00 59 1018.3
20260830200540 33 184 9.7 17.7 0.00 0.00 0.00 58 1018.3
20260830200447 33 256 8.0 17.7 0.00 0.00 0.00 59 1018.3
20260830200421 32 129 6.4 20.9 0.00 0.00 0.00 59 1018.3
20260830200133 32 136 8.0 20.9 0.00 0.00 0.00 59 1018.4
20260830200021 32 121 9.7 20.9 0.00 0.00 0.00 59 1018.4
20260830195927 32 145 9.7 20.9 0.00 0.00 0.00 59 1018.4
20260830195856 32 163 12.9 20.9 0.00 0.00 0.00 59 1018.6
20260830195725 32 143 14.5 20.9 0.00 0.00 0.00 59 1018.5
20260830195653 32 202 14.5 20.9 0.00 0.00 0.00 58 1018.6
20260830195519 32 242 12.9 19.3 0.00 0.00 0.00 59 1018.6
20260830195426 32 163 11.3 24.1 0.00 0.00 0.00 59 1018.6
20260830195335 32 241 8.0 24.1 0.00 0.00 0.00 58 1018.5
20260830195223 32 175 6.4 24.1 0.00 0.00 0.00 58 1018.6
20260830195134 32 195 9.7 24.1 0.00 0.00 0.00 58 1018.7
20260830195020 32 187 9.7 24.1 0.00 0.00 0.00 59 1018.7
20260830194948 32 155 8.0 24.1 0.00 0.00 0.00 58 1018.7
20260830194857 32 139 9.7 24.1 0.00 0.00 0.00 61 1018.7
20260830194651 32 136 14.5 22.5 0.00 0.00 0.00 59 1018.7
20260830194521 32 147 12.9 19.3 0.00 0.00 0.00 60 1018.7
20260830194429 32 127 11.3 17.7 0.00 0.00 0.00 60 1018.6
20260830194336 32 300 9.7 16.1 0.00 0.00 0.00 61 1018.7
20260830194223 32 173 8.0 16.1 0.00 0.00 0.00 60 1018.6
20260830194131 32 122 8.0 16.1 0.00 0.00 0.00 59 1018.8
20260830194058 32 232 8.0 16.1 0.00 0.00 0.00 61 1018.8
20260830193928 32 186 8.0 16.1 0.00 0.00 0.00 60 1018.8
20260830193857 32 213 8.0 16.1 0.00 0.00 0.00 63 1018.8
20260830193723 32 115 4.8 16.1 0.00 0.00 0.00 61 1018.8
20260830193630 32 205 8.0 16.1 0.00 0.00 0.00 61 1018.8
20260830193537 32 173 12.9 16.1 0.00 0.00 0.00 60 1018.9
20260830193423 32 184 12.9 16.1 0.00 0.00 0.00 61 1018.8
20260830193357 32 168 11.3 16.1 0.00 0.00 0.00 61 1018.8
20260830193131 32 147 8.0 16.1 0.00 0.00 0.00 61 1018.8
20260830193020 32 147 8.0 16.1 0.00 0.00 0.00 63 1018.8
20260830192927 32 60 8.0 16.1 0.00 0.00 0.00 64 1018.8
20260830192839 32 117 8.0 16.1 0.00 0.00 0.00 64 1018.9
20260830192726 32 98 6.4 16.1 0.00 0.00 0.00 61 1018.8
20260830192633 32 207 6.4 16.1 0.00 0.00 0.00 62 1018.9
20260830192520 32 171 8.0 16.1 0.00 0.00 0.00 62 1018.9
20260830192428 32 198 9.7 16.1 0.00 0.00 0.00 60 1018.9
20260830192335 32 193 9.7 16.1 0.00 0.00 0.00 61 1018.9
20260830192226 32 180 9.7 17.7 0.00 0.00 0.00 62 1018.9
20260830192133 32 168 9.7 17.7 0.00 0.00 0.00 62 1018.9
20260830192021 32 188 8.0 16.1 0.00 0.00 0.00 62 1018.9
20260830191949 32 210 8.0 16.1 0.00 0.00 0.00 62 1019.0
20260830191923 32 190 6.4 9.7 0.00 0.00 0.00 62 1019.0
20260830191637 32 223 6.4 11.3 0.00 0.00 0.00 61 1019.0
20260830191524 32 130 6.4 12.9 0.00 0.00 0.00 62 1019.0
20260830191432 32 126 6.4 12.9 0.00 0.00 0.00 61 1019.0
20260830191338 32 69 6.4 14.5 0.00 0.00 0.00 61 1019.0
20260830191225 32 104 6.4 14.5 0.00 0.00 0.00 62 1019.0
20260830191136 32 128 4.8 29.0 0.00 0.00 0.00 61 1019.0
20260830191023 32 176 6.4 29.0 0.00 0.00 0.00 61 1019.1
20260830190932 32 188 6.4 29.0 0.00 0.00 0.00 60 1018.9
20260830190820 32 174 6.4 29.0 0.00 0.00 0.00 62 1019.0
20260830190726 32 139 8.0 29.0 0.00 0.00 0.00 61 1019.0
20260830190636 32 211 9.7 29.0 0.00 0.00 0.00 60 1019.1
20260830190544 32 227 11.3 29.0 0.00 0.00 0.00 61 1019.1
20260830190451 32 211 12.9 29.0 0.00 0.00 0.00 62 1019.1
20260830190359 32 206 12.9 27.4 0.00 0.00 0.00 62 1019.1
20260830190133 32 157 16.1 20.9 0.00 0.00 0.00 61 1019.1
20260830190024 32 188 16.1 20.9 0.00 0.00 0.00 62 1019.2
20260830185932 32 136 12.9 20.9 0.00 0.00 0.00 63 1019.2
20260830185840 32 184 9.7 19.3 0.00 0.00 0.00 61 1019.1
20260830185726 32 173 6.4 17.7 0.00 0.00 0.00 63 1019.3
20260830185632 32 51 9.7 17.7 0.00 0.00 0.00 64 1019.2
20260830185520 32 164 9.7 17.7 0.00 0.00 0.00 65 1019.3
20260830185431 32 85 8.0 20.9 0.00 0.00 0.00 64 1019.2
20260830185320 32 167 11.3 20.9 0.00 0.00 0.00 63 1019.3
20260830185247 32 167 11.3 20.9 0.00 0.00 0.00 61 1019.2
20260830185134 32 162 9.7 20.9 0.00 0.00 0.00 61 1019.3
20260830185041 32 236 9.7 20.9 0.00 0.00 0.00 62 1019.2
20260830184927 32 184 11.3 20.9 0.00 0.00 0.00 61 1019.3
20260830184902 32 233 12.9 20.9 0.00 0.00 0.00 62 1019.3
20260830184635 32 193 16.1 20.9 0.00 0.00 0.00 62 1019.3
20260830184523 32 202 16.1 20.9 0.00 0.00 0.00 61 1019.3
20260830184430 32 172 12.9 24.1 0.00 0.00 0.00 62 1019.3
20260830184321 32 169 9.7 19.3 0.00 0.00 0.00 64 1019.3
20260830184230 32 208 8.0 19.3 0.00 0.00 0.00 63 1019.3
20260830184138 32 198 8.0 19.3 0.00 0.00 0.00 64 1019.3
20260830184046 32 195 8.0 19.3 0.00 0.00 0.00 63 1019.4
20260830183933 32 225 8.0 19.3 0.00 0.00 0.00 63 1019.4
20260830183900 32 165 8.0 24.1 0.00 0.00 0.00 63 1019.3
20260830183727 32 126 8.0 24.1 0.00 0.00 0.00 64 1019.4
20260830183638 32 133 9.7 24.1 0.00 0.00 0.00 65 1019.4
20260830183526 31 209 9.7 24.1 0.00 0.00 0.00 65 1019.4
20260830183433 31 171 8.0 24.1 0.00 0.00 0.00 66 1019.4
20260830183403 31 173 9.7 24.1 0.00 0.00 0.00 66 1019.4
20260830183141 31 181 12.9 24.1 0.00 0.00 0.00 65 1019.4
20260830183049 31 126 12.9 24.1 0.00 0.00 0.00 66 1019.5
20260830182934 31 135 11.3 24.1 0.00 0.00 0.00 65 1019.4
20260830182842 31 165 9.7 19.3 0.00 0.00 0.00 66 1019.4
20260830182729 31 111 8.0 19.3 0.00 0.00 0.00 65 1019.5
20260830182637 31 107 6.4 19.3 0.00 0.00 0.00 64 1019.4
20260830182523 31 136 9.7 22.5 0.00 0.00 0.00 63 1019.5
20260830182455 31 145 11.3 32.2 0.00 0.00 0.00 62 1019.4
20260830182321 31 128 12.9 32.2 0.00 0.00 0.00 62 1019.5
20260830182229 31 117 12.9 32.2 0.00 0.00 0.00 64 1019.5
20260830182136 32 120 11.3 32.2 0.00 0.00 0.00 63 1019.5
20260830182024 32 109 11.3 32.2 0.00 0.00 0.00 64 1019.5
20260830181932 32 155 12.9 32.2 0.00 0.00 0.00 63 1019.5
20260830181906 32 116 17.7 32.2 0.00 0.00 0.00 63 1019.5
20260830181620 32 146 12.9 32.2 0.00 0.00 0.00 62 1019.6
20260830181527 32 192 8.0 17.7 0.00 0.00 0.00 63 1019.6
20260830181435 32 209 9.7 19.3 0.00 0.00 0.00 63 1019.6
20260830181326 32 126 11.3 19.3 0.00 0.00 0.00 63 1019.6
20260830181233 32 164 11.3 19.3 0.00 0.00 0.00 64 1019.6
20260830181201 32 178 11.3 19.3 0.00 0.00 0.00 62 1019.6
20260830181027 32 175 9.7 19.3 0.00 0.00 0.00 65 1019.8
20260830180956 32 184 9.7 19.3 0.00 0.00 0.00 64 1019.7
20260830180843 32 124 12.9 19.3 0.00 0.00 0.00 64 1019.7
20260830180729 32 116 12.9 19.3 0.00 0.00 0.00 63 1019.7
20260830180639 32 122 14.5 19.3 0.00 0.00 0.00 64 1019.8
20260830180526 32 144 12.9 19.3 0.00 0.00 0.00 61 1019.7
20260830180434 32 197 9.7 19.3 0.00 0.00 0.00 62 1019.8
20260830180403 32 194 8.0 22.5 0.00 0.00 0.00 63 1019.8
20260830180135 31 148 11.3 22.5 0.00 0.00 0.00 64 1019.8
20260830180046 31 177 12.9 22.5 0.00 0.00 0.00 62 1019.8
20260830175933 32 165 11.3 22.5 0.00 0.00 0.00 61 1019.8
20260830175841 32 167 12.9 19.3 0.00 0.00 0.00 61 1019.8
20260830175726 32 157 14.5 19.3 0.00 0.00 0.00 62 1019.9
20260830175634 32 136 12.9 19.3 0.00 0.00 0.00 64 1019.8
20260830175542 31 111 12.9 17.7 0.00 0.00 0.00 63 1019.8
20260830175448 31 146 12.9 19.3 0.00 0.00 0.00 63 1019.8
20260830175359 31 175 9.7 19.3 0.00 0.00 0.00 62 1019.8
20260830175226 31 216 8.0 16.1 0.00 0.00 0.00 62 1019.8
20260830175154 31 155 8.0 16.1 0.00 0.00 0.00 64 1019.8
20260830175019 31 190 6.4 17.7 0.00 0.00 0.00 66 1019.9
20260830174946 31 200 8.0 17.7 0.00 0.00 0.00 63 1019.8
20260830174859 31 180 8.0 17.7 0.00 0.00 0.00 62 1019.8
20260830174634 31 184 9.7 17.7 0.00 0.00 0.00 63 1019.8
20260830174541 31 178 8.0 17.7 0.00 0.00 0.00 64 1019.9
20260830174427 31 178 4.8 17.7 0.00 0.00 0.00 65 1019.8
20260830174335 31 67 8.0 17.7 0.00 0.00 0.00 65 1019.9
20260830174222 31 205 8.0 20.9 0.00 0.00 0.00 66 1019.8
20260830174134 31 124 8.0 20.9 0.00 0.00 0.00 65 1019.9
20260830174020 31 132 9.7 20.9 0.00 0.00 0.00 65 1019.8
20260830173928 31 98 9.7 20.9 0.00 0.00 0.00 65 1019.9
20260830173856 31 113 11.3 20.9 0.00 0.00 0.00 66 1020.0
20260830173741 31 180 9.7 20.9 0.00 0.00 0.00 66 1019.9
20260830173629 31 125 6.4 22.5 0.00 0.00 0.00 65 1020.0
20260830173536 31 105 4.8 22.5 0.00 0.00 0.00 65 1019.9
20260830173508 31 158 8.0 22.5 0.00 0.00 0.00 67 1020.1
20260830173417 31 155 11.3 22.5 0.00 0.00 0.00 67 1020.1
20260830173130 31 161 8.0 22.5 0.00 0.00 0.00 66 1020.0
20260830173038 31 187 9.7 22.5 0.00 0.00 0.00 66 1020.0
20260830172924 31 167 12.9 22.5 0.00 0.00 0.00 67 1020.0
20260830172855 31 145 14.5 22.5 0.00 0.00 0.00 65 1020.1
20260830172722 31 130 12.9 20.9 0.00 0.00 0.00 65 1020.1
20260830172650 31 213 12.9 19.3 0.00 0.00 0.00 66 1020.2
20260830172536 31 173 12.9 19.3 0.00 0.00 0.00 65 1020.1
20260830172444 31 184 9.7 19.3 0.00 0.00 0.00 64 1020.1
20260830172331 31 180 8.0 19.3 0.00 0.00 0.00 65 1020.1
20260830172222 31 137 11.3 19.3 0.00 0.00 0.00 65 1020.2
20260830172131 31 135 14.5 19.3 0.00 0.00 0.00 65 1020.2
20260830172038 31 144 12.9 19.3 0.00 0.00 0.00 64 1020.2
20260830171946 31 184 8.0 20.9 0.00 0.00 0.00 65 1020.2
20260830171856 31 197 8.0 16.1 0.00 0.00 0.00 65 1020.2
20260830171634 31 141 9.7 20.9 0.00 0.00 0.00 68 1020.2
20260830171521 31 138 9.7 20.9 0.00 0.00 0.00 67 1020.3
20260830171430 31 122 9.7 20.9 0.00 0.00 0.00 67 1020.3
20260830171337 31 130 11.3 20.9 0.00 0.00 0.00 68 1020.2
20260830171224 31 181 9.7 20.9 0.00 0.00 0.00 69 1020.2
20260830171151 31 123 9.7 20.9 0.00 0.00 0.00 69 1020.3
20260830171042 30 207 11.3 20.9 0.00 0.00 0.00 67 1020.3
20260830170928 30 196 14.5 20.9 0.00 0.00 0.00 68 1020.3
20260830170857 30 145 14.5 20.9 0.00 0.00 0.00 67 1020.3
20260830170723 30 163 9.7 20.9 0.00 0.00 0.00 68 1020.3
20260830170631 30 167 11.3 20.9 0.00 0.00 0.00 68 1020.3
20260830170539 30 142 12.9 20.9 0.00 0.00 0.00 69 1020.3
20260830170446 30 124 11.3 20.9 0.00 0.00 0.00 69 1020.3
20260830170421 30 101 9.7 22.5 0.00 0.00 0.00 68 1020.3
20260830170133 30 103 11.3 22.5 0.00 0.00 0.00 68 1020.4
20260830170039 30 88 14.5 22.5 0.00 0.00 0.00 68 1020.4
20260830165947 30 143 16.1 22.5 0.00 0.00 0.00 68 1020.3
20260830165854 30 134 16.1 22.5 0.00 0.00 0.00 67 1020.3
20260830165723 30 172 16.1 22.5 0.00 0.00 0.00 68 1020.4
20260830165630 30 150 16.1 22.5 0.00 0.00 0.00 68 1020.3
20260830165558 30 98 12.9 22.5 0.00 0.00 0.00 70 1020.4
20260830165424 30 108 11.3 22.5 0.00 0.00 0.00 69 1020.4
20260830165331 30 127 11.3 22.5 0.00 0.00 0.00 67 1020.4
20260830165259 30 125 11.3 22.5 0.00 0.00 0.00 67 1020.5
20260830165124 30 130 12.9 22.5 0.00 0.00 0.00 68 1020.4
20260830165035 30 42 11.3 22.5 0.00 0.00 0.00 68 1020.5
20260830164941 30 139 11.3 22.5 0.00 0.00 0.00 68 1020.4
20260830164912 30 121 9.7 20.9 0.00 0.00 0.00 68 1020.4
20260830164624 30 136 9.7 17.7 0.00 0.00 0.00 69 1020.4
20260830164532 30 114 8.0 17.7 0.00 0.00 0.00 70 1020.5
20260830164424 30 131 9.7 17.7 0.00 0.00 0.00 68 1020.4
20260830164332 30 150 11.3 17.7 0.00 0.00 0.00 68 1020.5
20260830164219 30 121 11.3 16.1 0.00 0.00 0.00 70 1020.4
20260830164126 30 98 9.7 16.1 0.00 0.00 0.00 69 1020.5
20260830164034 30 81 6.4 17.7 0.00 0.00 0.00 68 1020.5
20260830163946 30 97 4.8 19.3 0.00 0.00 0.00 69 1020.5
20260830163833 30 114 6.4 19.3 0.00 0.00 0.00 68 1020.5
20260830163721 30 105 8.0 19.3 0.00 0.00 0.00 67 1020.5
20260830163628 30 90 9.7 19.3 0.00 0.00 0.00 68 1020.6
20260830163535 30 121 9.7 19.3 0.00 0.00 0.00 68 1020.5
20260830163444 30 104 12.9 19.3 0.00 0.00 0.00 67 1020.6
20260830163419 30 119 14.5 19.3 0.00 0.00 0.00 67 1020.6
20260830163151 30 126 11.3 19.3 0.00 0.00 0.00 66 1020.6
20260830163057 30 128 8.0 19.3 0.00 0.00 0.00 66 1020.7
20260830162924 30 196 6.4 19.3 0.00 0.00 0.00 65 1020.7
20260830162832 30 209 9.7 19.3 0.00 0.00 0.00 66 1020.6
20260830162722 31 151 12.9 19.3 0.00 0.00 0.00 67 1020.6
20260830162630 31 138 9.7 19.3 0.00 0.00 0.00 69 1020.6
20260830162538 31 130 8.0 19.3 0.00 0.00 0.00 68 1020.7
20260830162426 31 97 9.7 19.3 0.00 0.00 0.00 68 1020.6
20260830162333 31 130 12.9 19.3 0.00 0.00 0.00 69 1020.6
20260830162221 31 116 11.3 19.3 0.00 0.00 0.00 70 1020.6
20260830162133 31 137 9.7 19.3 0.00 0.00 0.00 70 1020.7
20260830162021 31 171 9.7 19.3 0.00 0.00 0.00 70 1020.6
20260830161928 31 171 9.7 20.9 0.00 0.00 0.00 69 1020.7
20260830161858 30 155 8.0 20.9 0.00 0.00 0.00 69 1020.7
20260830161637 30 144 8.0 20.9 0.00 0.00 0.00 69 1020.7
20260830161525 30 160 9.7 20.9 0.00 0.00 0.00 69 1020.8
20260830161433 30 172 11.3 20.9 0.00 0.00 0.00 69 1020.7
20260830161320 30 159 12.9 20.9 0.00 0.00 0.00 69 1020.7
20260830161249 30 119 11.3 20.9 0.00 0.00 0.00 68 1020.7
20260830161135 30 156 11.3 17.7 0.00 0.00 0.00 69 1020.7
20260830161047 30 145 11.3 17.7 0.00 0.00 0.00 70 1020.7
20260830160932 30 144 11.3 17.7 0.00 0.00 0.00 69 1020.8
20260830160820 30 125 8.0 17.7 0.00 0.00 0.00 70 1020.7
20260830160728 30 152 6.4 17.7 0.00 0.00 0.00 69 1020.8
20260830160655 30 163 4.8 17.7 0.00 0.00 0.00 69 1020.7
20260830160521 30 220 6.4 17.7 0.00 0.00 0.00 70 1020.8
20260830160433 30 193 8.0 20.9 0.00 0.00 0.00 69 1020.9
20260830160402 30 181 8.0 20.9 0.00 0.00 0.00 69 1020.9
20260830160135 30 146 9.7 20.9 0.00 0.00 0.00 69 1020.8
20260830160023 30 179 9.7 20.9 0.00 0.00 0.00 68 1020.8
20260830155931 30 230 9.7 20.9 0.00 0.00 0.00 69 1020.8
20260830155822 30 178 11.3 20.9 0.00 0.00 0.00 72 1020.8
20260830155729 30 128 12.9 20.9 0.00 0.00 0.00 70 1020.9
20260830155637 30 142 16.1 20.9 0.00 0.00 0.00 70 1020.8
20260830155545 30 121 14.5 24.1 0.00 0.00 0.00 69 1020.7
20260830155431 30 96 14.5 24.1 0.00 0.00 0.00 70 1020.8
20260830155322 30 124 11.3 24.1 0.00 0.00 0.00 70 1020.8
20260830155249 30 119 11.3 24.1 0.00 0.00 0.00 70 1020.8
20260830155136 30 203 14.5 24.1 0.00 0.00 0.00 70 1020.8
20260830155043 30 130 14.5 24.1 0.00 0.00 0.00 70 1020.9
20260830154949 30 152 14.5 24.1 0.00 0.00 0.00 70 1020.8
20260830154920 30 107 14.5 24.1 0.00 0.00 0.00 72 1020.8
20260830154635 30 144 14.5 22.5 0.00 0.00 0.00 70 1020.8
20260830154522 30 121 11.3 19.3 0.00 0.00 0.00 73 1020.8
20260830154431 30 140 11.3 19.3 0.00 0.00 0.00 73 1020.8
20260830154338 30 138 11.3 19.3 0.00 0.00 0.00 73 1020.9
20260830154224 30 169 8.0 19.3 0.00 0.00 0.00 71 1020.8
20260830154132 30 116 4.8 17.7 0.00 0.00 0.00 73 1020.7
20260830154023 30 196 4.8 17.7 0.00 0.00 0.00 72 1020.7
20260830153931 30 202 6.4 17.7 0.00 0.00 0.00 74 1020.8
20260830153839 30 180 6.4 17.7 0.00 0.00 0.00 74 1020.8
20260830153725 30 182 9.7 17.7 0.00 0.00 0.00 74 1020.8
20260830153632 30 147 11.3 17.7 0.00 0.00 0.00 72 1020.8
20260830153524 30 159 9.7 19.3 0.00 0.00 0.00 72 1020.8
20260830153431 30 123 6.4 19.3 0.00 0.00 0.00 73 1020.8
20260830153401 30 121 6.4 19.3 0.00 0.00 0.00 74 1020.8
20260830153136 30 144 9.7 19.3 0.00 0.00 0.00 75 1020.9
20260830153024 30 131 9.7 19.3 0.00 0.00 0.00 74 1020.9
20260830152934 30 186 8.0 19.3 0.00 0.00 0.00 74 1020.9
20260830152842 29 157 11.3 19.3 0.00 0.00 0.00 74 1020.8
20260830152728 29 166 11.3 19.3 0.00 0.00 0.00 74 1020.9
20260830152635 29 194 9.7 16.1 0.00 0.00 0.00 74 1020.8
20260830152524 29 173 9.7 12.9 0.00 0.00 0.00 75 1020.8
20260830152431 29 198 9.7 12.9 0.00 0.00 0.00 75 1020.9
20260830152323 29 202 9.7 14.5 0.00 0.00 0.00 75 1020.9
20260830152231 29 184 8.0 12.9 0.00 0.00 0.00 76 1020.9
20260830152138 29 211 8.0 12.9 0.00 0.00 0.00 76 1020.8
20260830152024 28 198 8.0 12.9 0.00 0.00 0.00 76 1020.8
20260830151930 28 172 8.0 12.9 0.00 0.00 0.00 74 1020.9
20260830151905 28 200 8.0 12.9 0.00 0.00 0.00 74 1020.9
20260830151638 28 228 8.0 16.1 0.00 0.00 0.00 75 1020.8
20260830151525 28 207 9.7 16.1 0.00 0.00 0.00 75 1020.8
20260830151432 28 182 9.7 16.1 0.00 0.00 0.00 75 1020.8
20260830151324 28 233 8.0 16.1 0.00 0.00 0.00 75 1020.8
20260830151232 28 223 8.0 16.1 0.00 0.00 0.00 75 1020.8
20260830151140 28 198 8.0 16.1 0.00 0.00 0.00 75 1020.9
20260830151026 28 174 9.7 16.1 0.00 0.00 0.00 75 1020.8
20260830150953 28 195 11.3 16.1 0.00 0.00 0.00 75 1020.8
20260830150819 28 117 8.0 16.1 0.00 0.00 0.00 75 1020.8
20260830150731 28 151 6.4 14.5 0.00 0.00 0.00 75 1020.8
20260830150658 28 170 8.0 14.5 0.00 0.00 0.00 74 1020.8
20260830150525 28 171 9.7 14.5 0.00 0.00 0.00 75 1020.7
20260830150454 28 210 9.7 14.5 0.00 0.00 0.00 74 1020.7
20260830150424 28 198 8.0 12.9 0.00 0.00 0.00 75 1020.7
20260830150121 28 259 8.0 12.9 0.00 0.00 0.00 74 1020.7
20260830150027 28 178 8.0 12.9 0.00 0.00 0.00 74 1020.7
20260830145935 28 152 6.4 14.5 0.00 0.00 0.00 74 1020.8
20260830145823 28 206 6.4 14.5 0.00 0.00 0.00 75 1020.8
20260830145732 28 217 4.8 16.1 0.00 0.00 0.00 74 1020.8
20260830145620 29 180 4.8 16.1 0.00 0.00 0.00 74 1020.7
20260830145531 29 163 4.8 16.1 0.00 0.00 0.00 74 1020.8
20260830145439 29 194 6.4 16.1 0.00 0.00 0.00 73 1020.8
20260830145325 29 201 8.0 16.1 0.00 0.00 0.00 73 1020.8
20260830145234 29 165 9.7 16.1 0.00 0.00 0.00 73 1020.7
20260830145141 29 112 9.7 16.1 0.00 0.00 0.00 74 1020.8
20260830145027 29 227 6.4 16.1 0.00 0.00 0.00 75 1020.7
20260830144939 29 161 6.4 16.1 0.00 0.00 0.00 76 1020.7
20260830144910 29 127 6.4 14.5 0.00 0.00 0.00 76 1020.7
20260830144623 28 172 9.7 14.5 0.00 0.00 0.00 76 1020.7
20260830144530 28 200 8.0 14.5 0.00 0.00 0.00 76 1020.8
20260830144441 28 206 6.4 14.5 0.00 0.00 0.00 77 1020.7
20260830144348 28 211 4.8 12.9 0.00 0.00 0.00 77 1020.7
20260830144253 28 219 6.4 12.9 0.00 0.00 0.00 78 1020.7
20260830144120 28 190 6.4 12.9 0.00 0.00 0.00 77 1020.7
20260830144027 28 250 6.4 12.9 0.00 0.00 0.00 77 1020.7
20260830143934 28 230 8.0 12.9 0.00 0.00 0.00 77 1020.7
20260830143842 28 202 8.0 12.9 0.00 0.00 0.00 77 1020.7
20260830143732 28 175 6.4 11.3 0.00 0.00 0.00 76 1020.7
20260830143639 28 165 6.4 11.3 0.00 0.00 0.00 77 1020.7
20260830143527 28 210 4.8 11.3 0.00 0.00 0.00 77 1020.8
20260830143455 28 125 6.4 14.5 0.00 0.00 0.00 77 1020.7
20260830143404 28 158 6.4 14.5 0.00 0.00 0.00 77 1020.7
20260830143121 28 198 6.4 14.5 0.00 0.00 0.00 77 1020.7
20260830143028 28 213 8.0 14.5 0.00 0.00 0.00 77 1020.7
20260830142957 28 190 8.0 14.5 0.00 0.00 0.00 76 1020.7
20260830142824 28 196 8.0 16.1 0.00 0.00 0.00 77 1020.7
20260830142732 28 194 8.0 16.1 0.00 0.00 0.00 77 1020.7
20260830142639 28 189 9.7 16.1 0.00 0.00 0.00 77 1020.8
20260830142532 28 188 9.7 16.1 0.00 0.00 0.00 77 1020.7
20260830142419 28 173 6.4 16.1 0.00 0.00 0.00 77 1020.7
20260830142328 28 210 4.8 16.1 0.00 0.00 0.00 77 1020.8
20260830142235 28 216 8.0 16.1 0.00 0.00 0.00 77 1020.8
20260830142122 28 229 9.7 16.1 0.00 0.00 0.00 77 1020.8
20260830142029 28 222 9.7 16.1 0.00 0.00 0.00 77 1020.8
20260830141940 28 193 9.7 16.1 0.00 0.00 0.00 76 1020.8
20260830141910 28 219 8.0 16.1 0.00 0.00 0.00 77 1020.8
20260830141624 28 154 8.0 16.1 0.00 0.00 0.00 77 1020.6
20260830141552 28 198 8.0 16.1 0.00 0.00 0.00 77 1020.7
20260830141422 28 177 9.7 16.1 0.00 0.00 0.00 77 1020.8
20260830141329 28 211 8.0 16.1 0.00 0.00 0.00 76 1020.7
20260830141236 28 163 8.0 16.1 0.00 0.00 0.00 77 1020.8
20260830141122 28 178 6.4 16.1 0.00 0.00 0.00 78 1020.8
20260830141050 28 202 6.4 16.1 0.00 0.00 0.00 79 1020.8
20260830140935 28 135 8.0 16.1 0.00 0.00 0.00 77 1020.8
20260830140822 28 178 9.7 16.1 0.00 0.00 0.00 78 1020.7
20260830140733 28 177 8.0 12.9 0.00 0.00 0.00 78 1020.8
20260830140619 28 214 8.0 12.9 0.00 0.00 0.00 78 1020.8
20260830140528 28 192 8.0 12.9 0.00 0.00 0.00 78 1020.8
20260830140436 28 222 6.4 12.9 0.00 0.00 0.00 78 1020.8
20260830140406 28 200 6.4 12.9 0.00 0.00 0.00 78 1020.8
20260830140122 28 133 8.0 12.9 0.00 0.00 0.00 79 1020.8
20260830140031 28 178 8.0 12.9 0.00 0.00 0.00 78 1020.8
20260830135937 28 259 8.0 12.9 0.00 0.00 0.00 80 1020.7
20260830135824 28 140 4.8 12.9 0.00 0.00 0.00 79 1020.8
20260830135732 27 153 3.2 12.9 0.00 0.00 0.00 79 1020.6
20260830135642 27 119 4.8 12.9 0.00 0.00 0.00 80 1020.7
20260830135530 27 160 4.8 12.9 0.00 0.00 0.00 79 1020.7
20260830135457 27 201 3.2 12.9 0.00 0.00 0.00 80 1020.7
20260830135324 27 167 3.2 12.9 0.00 0.00 0.00 80 1020.7
20260830135230 27 88 4.8 12.9 0.00 0.00 0.00 80 1020.7
20260830135137 27 128 8.0 12.9 0.00 0.00 0.00 79 1020.7